ECMWFFLT2_250_spd_000.txt.gz
Wind_Speed
80 78 76 74 72 68 67 68 63 56 53 52 51 49 47 47 46 44 45 41 42 47 41 34 35 35 35 37 36 36 34 31 31 30 30 29 29 28 27 27 27 27 28 28 27 27 28 28 29 30 30 31 32 34 34 35 35 35 35 35 35 35 34
83 81 81 80 77 73 70 69 66 62 60 57 53 52 50 49 46 44 47 45 45 47 42 37 39 39 40 40 39 38 36 34 34 33 32 32 31 30 30 30 29 30 31 31 30 30 31 31 32 32 33 33 34 35 35 35 36 36 36 36 36 36 35
88 86 87 85 81 76 73 72 70 67 65 60 56 55 53 51 47 45 47 47 48 49 44 40 42 43 43 43 41 40 39 38 37 36 34 34 33 33 32 32 32 32 34 34 33 33 33 33 33 34 34 35 35 36 36 36 37 38 38 38 38 37 37
93 91 90 88 82 77 76 75 73 71 68 64 61 59 56 54 50 48 49 49 49 52 49 44 45 46 46 45 44 42 41 40 39 39 38 36 36 35 35 35 34 35 36 36 36 35 34 34 34 35 36 36 36 37 37 38 39 39 40 40 39 39 38
97 93 90 87 83 80 80 77 75 74 71 67 66 62 58 56 53 49 49 49 50 55 54 47 46 48 47 47 46 44 43 42 41 41 40 39 39 38 38 38 37 37 38 38 38 37 36 36 36 36 36 37 37 38 39 40 40 41 41 41 40 40 39
98 94 90 87 87 86 85 81 78 78 74 72 72 66 59 58 55 50 49 49 52 57 57 51 49 49 48 48 47 46 45 44 43 43 42 42 42 41 41 41 39 38 38 39 39 38 37 37 37 37 38 38 39 40 40 41 42 42 42 42 42 41 40
98 96 93 92 92 91 90 86 84 83 79 78 76 67 61 60 56 52 52 52 54 56 57 57 54 51 50 49 49 49 48 47 46 45 44 44 44 43 42 42 41 40 39 40 39 39 39 39 39 40 40 40 41 41 42 43 43 44 44 44 43 42 42
100 99 98 98 97 96 94 91 87 86 82 79 76 68 65 64 59 58 58 55 54 55 58 62 59 56 54 52 52 52 50 49 49 47 46 46 45 44 43 43 43 41 40 41 40 40 40 41 41 41 42 42 43 43 44 44 45 46 45 45 45 44 44
102 102 101 101 99 97 96 91 88 86 83 80 78 73 72 69 63 63 60 55 55 57 60 64 64 61 58 55 54 54 52 52 52 50 49 49 47 46 46 46 45 43 43 43 42 42 42 42 42 42 43 43 44 45 46 46 47 48 48 47 47 47 46
99 102 102 101 97 96 95 92 89 87 85 83 80 78 78 72 64 64 61 56 58 59 60 65 68 65 61 59 57 56 55 55 54 53 52 50 49 49 48 48 47 46 46 45 44 43 43 43 43 43 43 44 46 47 48 48 49 49 50 49 49 49 48
95 100 103 102 99 98 98 96 93 91 89 87 85 83 81 72 67 67 62 59 61 60 59 66 70 68 65 62 61 59 58 58 57 55 53 52 52 51 50 49 49 49 48 47 46 45 44 44 44 44 45 46 47 48 49 50 51 52 52 52 52 52 50
91 96 102 104 103 102 101 100 98 96 93 91 90 87 81 74 74 72 65 62 63 59 59 67 72 71 68 66 64 62 60 60 59 57 55 54 53 53 52 52 52 51 50 49 47 46 45 45 45 45 46 47 48 50 50 52 53 54 54 54 55 55 52
89 93 100 104 105 104 103 103 101 99 96 95 93 88 83 81 81 75 68 66 64 59 61 68 73 74 71 69 68 65 62 61 61 60 58 55 54 54 54 55 55 53 52 51 49 47 46 47 47 47 48 48 50 51 52 53 55 56 57 57 58 56 54
88 91 95 102 106 106 105 105 103 101 99 97 94 90 88 87 85 78 72 71 66 61 64 70 75 76 74 73 70 66 63 63 62 62 60 57 57 57 57 58 57 55 53 52 50 48 48 49 49 49 49 50 51 52 54 55 57 58 59 59 59 57 55
86 89 92 98 103 107 108 106 105 103 101 99 96 93 91 91 88 83 78 76 70 65 67 73 77 77 76 73 70 67 65 65 64 63 60 59 60 60 60 60 58 56 55 54 52 50 50 51 51 51 51 52 53 55 56 58 59 59 60 60 60 58 57
83 86 90 94 99 105 110 109 107 105 102 100 97 94 93 91 89 86 82 78 72 68 70 75 78 78 77 74 71 69 68 66 64 63 61 61 62 63 63 61 59 58 58 56 53 52 53 53 53 53 53 54 55 57 58 59 60 61 61 61 60 59 59
80 84 88 92 96 103 109 110 108 105 102 100 97 95 93 92 90 88 85 78 72 71 74 77 79 79 77 74 72 71 69 66 64 63 62 63 64 65 64 62 60 60 60 58 56 55 55 55 55 55 55 56 58 58 59 60 61 62 62 61 61 61 61
75 81 86 91 95 100 104 105 105 104 102 100 98 96 94 93 91 89 85 81 78 78 77 76 78 79 76 74 73 72 69 67 65 64 64 65 66 66 65 63 62 63 62 60 58 57 57 57 57 57 57 59 60 60 61 62 63 64 64 63 62 63 63
70 76 84 90 93 95 96 99 103 105 104 102 101 99 97 95 93 90 87 85 84 82 78 76 77 79 77 76 75 73 70 68 67 66 66 67 67 67 66 65 64 64 64 62 60 59 58 58 58 58 59 61 62 62 63 64 65 66 66 65 65 65 65
70 72 79 87 89 89 90 93 99 103 105 105 104 102 100 97 94 91 88 87 86 84 81 79 79 80 81 79 77 74 71 70 69 68 67 68 69 68 67 67 66 66 66 63 61 61 61 60 60 60 61 64 65 65 65 66 67 68 67 67 67 67 68
69 69 73 79 83 85 86 89 94 99 104 106 106 104 101 98 95 92 90 87 86 85 84 82 81 81 82 81 78 75 73 72 71 70 70 71 71 70 70 68 68 69 68 64 62 65 66 63 61 62 63 66 68 68 69 69 69 70 69 68 68 69 69
66 68 71 74 78 82 85 87 90 95 101 106 107 105 103 100 96 93 90 88 87 85 84 84 83 84 84 83 80 76 74 74 73 72 72 73 73 72 72 70 70 71 70 67 65 68 69 68 66 65 66 67 69 71 71 72 72 72 71 70 70 69 69
65 67 69 72 75 80 83 84 87 92 97 102 105 105 103 100 96 94 92 90 89 86 85 84 85 86 87 85 81 78 78 77 76 75 75 75 75 75 74 73 73 73 73 71 69 70 72 72 70 69 69 69 70 72 73 73 74 73 73 72 72 70 69
63 65 66 68 71 76 78 80 83 88 92 98 102 104 102 99 95 94 94 92 90 89 87 86 86 88 88 86 83 82 82 81 79 78 77 77 77 77 76 75 75 75 75 75 73 73 74 75 74 73 72 72 72 73 73 74 74 74 74 74 73 71 70
60 62 62 64 68 71 74 76 80 84 89 95 98 99 99 96 94 95 96 94 93 92 90 87 87 89 88 86 85 86 85 83 82 81 79 78 78 78 77 77 77 77 77 77 77 76 76 76 76 75 75 74 74 74 73 74 75 75 75 75 74 72 70
57 58 58 60 63 66 69 73 78 82 85 88 90 94 96 95 94 96 97 96 94 92 91 89 89 90 89 87 88 88 87 86 84 82 79 78 78 79 79 79 79 79 79 79 79 78 77 77 77 77 76 76 75 74 74 75 75 76 76 74 73 71 70
53 54 54 54 56 60 64 69 74 77 79 79 81 87 93 94 95 96 96 95 94 92 92 92 92 91 89 87 88 88 87 87 85 83 81 80 80 81 81 81 81 80 81 81 81 80 79 78 78 77 76 76 76 76 76 76 77 77 75 73 72 71 71
49 49 49 49 51 55 60 63 67 70 73 74 76 81 87 90 93 95 95 94 95 94 94 93 92 91 89 88 87 87 87 87 85 83 82 82 82 83 82 82 82 82 82 83 82 81 80 79 78 77 77 76 76 77 77 76 77 78 76 72 71 71 71
45 44 46 47 49 52 55 57 61 65 68 72 75 78 82 85 89 92 93 93 94 94 94 93 92 91 90 88 87 86 87 87 86 85 84 84 83 83 83 83 83 83 83 84 83 82 81 80 79 78 77 77 76 77 77 76 76 76 75 72 71 71 71
40 40 42 43 44 48 50 53 58 61 64 68 72 75 78 81 85 87 89 91 92 92 92 91 91 90 89 87 86 86 86 87 86 85 84 84 83 83 83 83 83 84 84 84 83 82 81 80 80 79 78 77 76 77 77 76 75 74 74 73 73 72 72
38 38 40 40 41 45 47 50 54 57 60 63 66 70 74 78 81 84 86 88 90 90 90 90 89 89 88 87 87 86 87 87 86 84 83 82 82 83 83 83 83 84 84 83 82 81 79 79 79 79 78 76 75 75 75 75 75 75 75 75 74 73 73
41 42 43 44 46 46 44 44 48 52 55 58 60 64 68 72 76 80 82 85 87 88 89 89 88 87 87 86 87 87 88 87 85 83 82 82 82 82 82 82 82 83 82 81 80 78 77 77 78 78 77 76 75 75 75 75 76 76 76 76 75 74 73
45 47 48 48 49 49 46 42 42 44 49 54 57 59 62 66 70 74 78 81 83 85 86 87 86 86 85 85 86 88 88 86 84 82 82 82 81 81 81 81 81 80 79 78 77 76 76 76 77 77 77 75 74 75 75 75 75 77 76 75 74 74 74
49 53 51 47 47 49 48 44 38 35 39 47 53 56 58 61 65 68 72 75 78 81 83 84 85 85 85 85 85 87 86 84 82 82 82 81 80 79 79 78 78 77 76 76 76 76 76 76 77 77 76 73 73 74 75 74 75 76 75 74 74 74 75
54 58 55 49 46 47 47 44 39 36 35 38 43 49 53 57 61 65 68 71 74 77 80 82 83 84 84 83 83 83 83 82 81 81 81 80 79 78 78 77 76 76 76 76 76 77 77 76 76 76 76 74 73 73 74 74 74 75 74 74 75 75 75
57 60 58 53 49 47 42 36 33 33 32 31 34 37 42 48 53 58 63 67 70 74 76 78 80 81 81 82 81 81 81 80 81 80 80 79 79 79 78 78 78 78 78 77 78 78 78 77 76 75 74 74 74 74 74 74 75 75 75 75 76 76 76
61 61 58 54 50 47 39 30 26 28 29 29 30 30 33 39 45 50 56 61 65 69 72 75 78 79 79 80 80 80 80 80 80 79 78 79 79 79 79 80 80 80 80 79 80 80 78 76 75 75 74 75 76 77 77 77 77 77 77 77 77 76 76

ECMWFFLT2_250_spd_003.txt.gz
Wind_Speed
81 80 82 82 80 75 71 73 72 64 60 60 58 55 55 56 53 48 46 46 46 46 47 48 45 42 38 35 35 35 34 33 32 31 30 29 29 29 28 29 30 28 27 28 28 28 28 28 28 28 28 28 28 28 28 28 29 29 30 31 31 30 30
84 84 85 85 83 79 76 76 74 69 66 65 62 60 60 57 51 48 48 49 48 47 48 50 48 46 39 34 38 40 36 35 35 34 33 31 31 31 31 31 32 31 30 30 31 31 31 30 31 31 31 31 31 30 30 30 31 31 31 32 32 32 32
86 88 88 87 86 83 80 78 76 74 71 68 65 63 61 56 52 51 50 51 51 49 49 52 51 49 41 36 42 44 39 38 37 36 36 34 33 33 32 34 34 34 33 33 33 34 33 33 33 33 33 33 33 32 32 32 32 32 32 32 32 33 33
87 89 90 88 86 84 83 81 79 78 76 72 70 66 62 59 57 55 53 52 53 51 52 54 54 50 43 41 46 46 42 41 39 39 39 37 35 34 34 35 36 37 37 36 37 36 36 35 36 36 35 35 35 35 35 34 33 33 33 33 34 34 35
84 88 89 88 87 86 86 84 82 82 80 77 74 69 65 65 63 59 56 54 54 54 55 57 57 51 45 46 48 46 45 44 42 42 42 40 38 35 34 36 40 41 40 40 40 39 38 38 38 38 37 37 37 36 36 35 34 34 34 35 36 37 37
78 84 87 89 90 91 90 90 87 85 83 81 78 73 71 71 66 60 59 57 55 57 59 60 59 53 49 49 48 47 48 47 44 44 44 42 40 37 35 36 41 43 43 42 42 41 40 40 39 39 39 38 38 37 37 36 36 35 36 37 38 39 40
74 80 87 90 93 94 94 94 91 89 87 85 83 79 77 75 66 61 63 61 58 60 61 60 60 56 51 51 49 48 50 49 47 47 46 45 43 39 36 38 42 45 45 45 44 43 42 41 41 40 40 39 39 38 38 38 38 37 37 38 40 42 43
72 76 83 89 93 96 96 95 93 91 89 88 87 84 80 76 70 68 69 64 59 61 61 60 61 58 52 51 51 50 51 51 50 49 48 47 45 41 39 40 44 46 47 46 45 45 44 42 41 41 40 40 40 40 40 40 39 39 38 39 41 44 45
72 71 77 85 90 94 96 96 94 92 90 91 89 85 83 81 77 75 72 66 63 63 63 63 63 61 56 53 54 53 52 52 52 51 50 48 45 43 43 43 46 47 48 47 46 45 44 43 42 42 41 42 42 42 42 41 41 40 40 41 43 45 46
68 70 72 80 87 92 94 96 97 94 94 95 91 87 87 86 81 78 73 68 66 67 67 66 64 63 61 58 57 56 54 54 55 53 52 51 48 47 46 46 47 48 48 47 46 45 45 44 43 43 43 44 44 44 44 43 43 42 42 44 46 47 47
63 70 73 76 83 90 94 97 99 98 98 98 94 90 92 90 86 81 76 71 70 70 69 68 65 64 64 62 59 58 57 58 57 55 55 55 52 49 49 48 47 47 47 47 47 47 47 46 45 45 46 46 46 46 46 45 45 44 45 48 50 50 49
61 68 73 75 79 87 93 95 97 99 101 101 99 96 94 94 92 85 78 76 75 72 71 70 67 65 66 66 64 61 60 60 59 58 58 59 55 51 50 49 47 47 47 48 49 49 48 48 48 48 47 47 48 48 48 47 47 46 47 51 53 52 51
60 64 71 74 77 83 90 94 95 98 102 103 102 99 96 96 95 86 81 82 80 76 73 72 70 67 68 70 69 65 64 63 63 62 62 60 55 53 52 51 49 48 48 48 49 49 48 49 50 50 50 49 50 50 50 50 50 50 50 52 54 53 53
60 63 68 73 76 79 85 91 94 96 100 103 104 101 98 98 97 89 87 89 85 78 75 74 73 71 70 72 73 71 68 66 66 66 63 60 58 56 56 55 52 50 50 50 50 50 49 50 51 52 52 51 52 52 52 53 54 54 53 54 54 54 54
62 62 66 70 74 77 81 87 92 96 98 102 104 103 100 100 99 93 91 92 87 82 79 78 77 75 73 74 76 75 72 70 70 67 63 63 63 60 59 56 52 52 53 54 54 53 53 52 52 53 53 54 54 54 55 56 56 56 56 56 55 54 56
61 61 64 67 71 75 78 81 88 93 97 99 102 104 103 102 100 96 95 92 88 84 83 82 80 77 75 74 76 77 75 74 73 68 66 67 65 62 61 58 54 53 55 56 57 56 56 56 55 56 56 56 56 57 58 58 59 59 58 57 57 56 58
63 62 64 65 68 75 77 76 80 88 94 97 100 102 103 103 101 99 97 93 89 88 87 85 82 79 75 72 75 80 80 78 76 71 70 71 66 63 63 60 55 54 57 59 60 59 59 58 57 58 58 58 59 60 60 60 61 61 60 59 58 58 60
63 62 64 67 69 70 69 71 77 84 91 96 99 100 102 104 105 102 99 96 94 92 91 88 85 83 77 72 76 83 84 81 79 74 72 72 68 66 65 61 57 58 60 61 61 62 62 60 58 59 60 61 62 62 62 62 63 63 62 61 60 61 62
61 61 62 64 63 60 61 69 77 81 86 92 96 99 101 104 106 105 102 100 99 97 95 92 89 86 79 74 79 87 87 82 78 75 74 74 70 67 66 63 61 63 64 63 62 63 65 63 60 61 62 63 64 64 63 63 64 64 63 62 62 63 64
63 62 60 57 54 53 58 67 75 77 81 87 94 97 99 102 105 106 104 102 101 101 99 95 91 87 83 80 83 87 85 82 80 77 76 75 71 70 69 67 66 67 68 66 64 65 68 66 63 63 64 65 65 65 65 65 65 66 65 64 64 64 65
62 62 59 55 54 56 58 63 70 74 75 80 88 93 95 98 101 103 104 104 103 102 100 96 93 92 89 83 81 83 85 84 83 80 77 75 72 69 70 70 71 71 70 68 67 68 70 68 65 65 66 66 67 67 66 66 67 67 67 67 66 66 67
64 63 59 54 53 56 58 59 63 65 65 70 81 87 89 92 97 100 102 104 104 103 100 98 97 97 94 84 79 82 88 88 86 84 81 79 76 73 72 73 74 74 73 71 70 71 72 70 67 67 67 67 68 69 68 68 69 69 69 69 69 68 69
62 61 59 56 54 55 57 58 60 60 58 60 72 80 80 81 88 94 98 102 105 104 102 101 100 98 96 88 82 84 89 89 87 87 86 84 81 79 77 76 76 77 75 73 73 74 74 71 69 68 68 68 70 70 70 70 70 71 71 71 71 71 71
61 59 57 55 56 56 54 53 57 60 56 53 61 70 73 74 80 88 93 97 102 105 104 102 101 100 96 91 88 88 89 88 88 90 91 88 84 81 80 79 79 79 78 76 76 76 76 73 71 70 70 71 71 71 71 72 71 72 72 73 72 72 73
63 61 56 52 54 55 53 53 56 57 54 52 54 59 66 73 78 84 89 91 93 99 104 103 100 99 98 96 94 90 87 87 91 94 94 91 86 83 82 81 81 81 81 80 78 77 77 76 74 73 73 73 73 73 73 73 73 73 74 74 74 74 74
62 61 58 56 56 53 51 55 58 55 52 52 52 51 57 67 74 78 84 87 87 90 98 103 103 101 100 99 98 92 87 88 94 98 97 93 89 86 85 84 84 84 84 82 79 78 78 79 78 76 74 75 75 75 75 75 74 74 75 76 76 76 76
61 59 57 59 59 52 48 54 59 59 57 55 53 51 53 60 68 73 77 82 84 84 88 96 101 102 102 101 99 94 88 88 94 99 98 94 91 89 87 87 86 85 84 82 81 81 81 81 80 79 77 76 76 76 76 75 75 75 76 77 77 78 78
61 61 59 58 55 49 50 56 60 61 60 56 53 53 53 55 62 67 69 70 75 79 84 91 97 101 102 102 100 97 94 93 96 99 97 94 92 91 89 87 86 85 84 84 84 83 82 82 82 81 79 77 77 77 76 76 76 76 77 78 79 79 78
63 61 59 56 52 49 53 59 59 57 57 55 53 53 53 54 57 59 60 61 65 69 74 80 87 93 98 99 97 97 99 99 99 100 97 93 91 90 88 86 86 86 86 86 86 85 84 83 82 81 80 79 79 78 77 76 76 76 77 78 79 78 78
62 60 57 53 50 51 53 53 52 51 51 53 52 51 51 52 51 51 52 55 60 63 64 65 71 79 89 95 95 94 97 100 101 100 96 92 90 89 88 89 89 88 88 87 86 85 84 83 82 81 81 81 80 79 78 77 77 77 77 77 77 76 76
59 60 58 52 52 54 51 47 46 46 46 49 50 48 46 46 45 46 46 44 48 57 61 58 60 68 80 91 95 96 97 100 101 99 96 93 91 90 90 90 90 88 87 86 85 85 84 82 81 81 81 81 80 79 78 77 77 76 75 73 72 72 72
57 57 53 51 53 55 50 45 45 44 43 44 45 44 44 43 41 42 43 39 38 49 60 64 66 70 77 86 92 95 96 98 100 100 97 95 93 92 91 91 90 88 87 86 85 84 83 82 81 81 81 80 80 79 78 77 77 77 74 71 70 71 72
54 53 51 53 56 53 46 42 42 41 40 40 40 40 42 44 42 42 46 47 43 44 54 64 71 74 76 81 89 93 95 96 97 97 97 97 95 93 92 91 89 88 87 86 85 84 83 82 82 82 82 81 80 79 77 76 77 77 75 73 72 72 73
52 53 54 55 54 48 42 39 38 37 36 36 36 36 40 44 45 45 48 52 52 51 54 61 68 71 73 75 81 87 92 94 94 92 93 95 95 94 92 90 89 87 86 85 85 84 83 83 82 82 82 81 80 78 75 74 76 77 76 74 74 74 74
53 55 58 55 46 38 37 37 37 36 35 33 31 32 35 41 46 49 51 52 55 58 62 66 69 70 71 71 73 78 83 88 91 90 89 90 91 91 91 89 88 86 85 84 84 83 83 83 82 82 82 81 80 79 77 76 77 78 77 77 77 77 78
53 52 54 51 41 35 37 38 38 38 37 34 31 31 33 35 40 47 51 52 55 57 59 62 66 67 67 68 70 71 75 80 85 87 87 87 87 88 88 88 87 86 84 83 82 82 82 81 81 81 81 80 79 78 77 75 75 77 79 79 79 79 79
53 52 51 47 40 39 40 39 39 40 39 38 36 35 35 33 33 37 41 46 51 54 53 55 59 62 63 65 67 68 69 72 76 81 83 84 85 85 85 85 84 83 81 80 80 80 80 80 79 80 79 79 78 77 76 74 74 77 79 79 79 79 79

ECMWFFLT2_250_spd_006.txt.gz
Wind_Speed
57 61 68 73 74 73 72 74 72 64 61 63 62 60 61 60 55 51 47 45 45 46 45 47 46 42 41 39 38 37 34 33 35 35 33 33 33 34 33 31 30 29 27 26 24 25 28 29 26 24 24 25 26 26 26 25 26 26 26 27 28 28 29
51 57 64 70 73 74 75 73 70 67 68 68 67 66 66 63 57 53 51 48 48 49 48 49 48 46 45 43 41 38 36 36 36 35 34 32 34 35 34 32 31 31 30 28 27 28 30 31 29 27 26 27 28 28 28 28 28 29 29 29 30 30 30
45 50 58 65 68 71 73 73 72 72 72 70 70 71 68 63 60 58 55 51 51 51 49 48 49 49 47 46 45 41 40 39 37 38 36 34 35 36 35 34 33 33 33 31 30 30 31 33 32 31 29 30 31 30 30 30 31 31 31 31 31 31 31
42 43 48 54 61 66 71 75 76 76 74 71 73 74 71 66 65 63 59 55 52 50 49 50 52 51 47 49 49 45 43 42 40 41 40 37 37 39 37 37 36 36 35 34 33 32 33 35 36 35 33 32 33 32 32 32 33 33 33 33 32 32 32
42 38 38 44 55 65 71 76 78 78 75 74 76 77 74 71 70 66 61 58 54 51 52 54 55 53 49 51 52 47 45 45 43 45 45 41 40 41 41 40 39 38 37 37 37 35 36 38 38 38 36 34 34 34 34 34 34 35 35 34 34 33 33
44 38 35 40 52 61 68 73 77 78 77 76 78 80 77 74 73 69 65 62 58 56 56 55 57 56 53 54 54 49 48 48 46 49 50 44 41 43 45 42 40 40 40 40 39 37 37 39 39 40 38 35 34 34 35 35 36 36 36 35 35 35 35
46 44 41 40 46 54 61 69 72 76 79 79 79 80 78 76 75 72 69 67 62 60 59 57 59 59 56 56 56 52 50 49 48 51 52 47 43 46 48 44 42 43 42 41 40 38 38 39 40 41 38 35 34 35 36 37 38 37 37 37 37 37 37
52 49 46 43 43 47 54 62 67 71 76 78 78 79 79 80 80 76 74 71 67 64 63 61 60 60 60 60 58 54 52 51 51 53 52 49 46 48 49 46 45 45 42 42 42 40 39 40 42 42 38 35 35 36 38 39 39 38 38 39 39 38 39
55 53 48 44 44 45 47 52 59 65 71 75 79 81 83 84 82 78 77 75 70 67 66 65 63 63 64 63 60 57 54 52 54 55 53 52 49 48 50 49 47 46 44 44 44 42 41 42 43 41 38 36 37 39 39 39 39 40 41 42 41 40 41
55 56 51 46 48 49 46 47 54 62 69 73 78 83 87 87 83 80 80 78 73 71 71 70 68 66 65 65 63 61 57 55 56 57 56 55 51 49 51 52 50 48 46 46 45 44 44 44 44 43 42 40 41 42 42 40 40 41 44 45 44 43 43
59 59 57 53 52 52 49 47 51 58 65 71 75 82 88 89 85 83 83 81 77 76 76 74 70 68 67 66 65 64 62 59 59 60 59 57 53 51 53 55 53 50 48 47 46 47 48 48 46 46 47 47 47 46 45 43 42 44 46 47 46 45 46
65 61 62 62 57 53 51 50 50 54 60 68 74 80 85 87 88 86 84 82 81 80 80 78 74 72 72 69 66 67 68 65 62 62 62 59 55 55 57 57 54 51 50 49 49 49 51 51 49 48 49 50 50 49 47 45 44 47 49 50 49 49 50
68 64 64 66 62 57 55 55 53 52 57 65 72 77 79 82 87 88 85 83 84 84 83 81 78 77 75 72 70 70 70 69 67 65 64 61 59 60 60 57 55 54 53 53 52 52 53 53 52 51 51 51 51 50 49 48 47 49 52 52 51 52 53
71 69 67 65 65 63 61 58 55 54 55 60 68 74 76 79 83 87 88 87 86 86 86 84 82 81 79 76 74 73 73 73 71 69 66 63 62 63 62 60 58 58 57 56 55 54 55 56 56 55 54 54 53 51 50 50 49 50 52 53 53 54 55
73 71 69 67 65 65 65 61 58 56 55 57 62 68 73 76 79 84 88 89 86 85 87 88 87 85 83 80 79 78 77 76 75 72 69 66 66 67 66 64 62 60 58 57 57 57 58 58 58 58 56 56 55 54 52 52 52 51 52 55 57 57 57
74 69 70 69 67 69 70 65 58 55 55 56 59 63 68 73 77 80 85 88 86 85 88 91 91 89 87 85 84 83 81 80 78 75 72 69 69 69 69 66 63 61 60 59 60 60 60 59 59 58 58 57 57 57 56 55 55 54 55 58 60 60 60
76 70 69 70 75 78 69 56 52 54 56 58 60 62 63 68 74 80 84 86 85 85 90 93 94 93 91 90 87 85 84 84 81 77 74 72 72 71 70 68 65 64 65 64 63 63 61 60 59 59 59 59 59 59 58 58 59 58 58 60 62 62 62
80 75 75 78 84 80 60 50 57 63 62 61 61 61 62 66 73 78 83 85 84 86 92 96 96 95 94 93 89 87 87 87 84 81 77 75 74 72 71 72 69 68 69 68 65 64 62 60 60 60 60 60 61 61 60 61 61 61 60 61 63 64 64
84 81 83 86 84 73 61 62 69 68 64 62 60 60 63 66 69 72 78 83 84 85 91 96 96 95 95 95 91 90 91 91 88 85 82 79 77 73 73 75 73 71 72 71 67 65 64 63 63 62 63 64 64 63 62 63 64 63 62 62 64 66 66
87 85 88 87 80 70 67 72 73 68 64 62 60 60 61 63 67 69 72 77 80 82 86 92 95 95 96 96 94 93 94 93 90 88 85 82 79 75 76 79 76 73 74 73 70 67 66 66 66 66 68 68 67 66 65 65 66 66 64 64 65 67 67
90 91 91 88 80 74 72 72 71 67 63 60 58 57 57 60 65 66 66 70 75 78 81 86 92 95 96 97 97 97 96 94 92 90 87 84 82 79 80 80 77 75 76 75 73 71 70 69 69 70 71 71 70 68 67 67 67 68 66 66 67 68 68
94 94 93 88 80 74 69 68 67 64 60 57 54 50 51 57 61 63 67 71 73 75 79 85 90 95 97 98 98 98 97 96 93 92 90 88 85 82 83 82 79 77 79 78 76 75 74 72 71 72 73 74 73 71 69 67 69 70 69 68 68 69 69
97 96 93 87 79 72 69 69 67 62 57 53 49 47 50 56 60 64 69 70 69 71 75 79 85 92 96 98 97 96 96 97 97 96 94 90 87 86 86 86 83 81 81 80 79 79 78 74 72 73 74 74 73 72 69 69 71 73 72 70 68 69 70
96 94 90 84 77 72 69 67 65 59 55 51 49 49 50 53 57 62 63 63 65 69 71 74 79 84 89 92 93 94 96 100 101 99 95 92 91 89 88 88 88 86 83 82 82 79 77 75 75 76 75 74 73 72 71 70 72 75 74 70 69 70 70
93 91 87 81 76 70 65 62 60 54 51 53 55 53 50 49 52 57 60 61 63 65 68 72 75 79 85 91 92 94 98 102 101 99 97 95 92 90 89 91 93 89 84 84 83 80 78 77 77 76 76 75 75 75 73 71 72 74 74 72 71 72 72
88 85 82 77 73 68 62 58 55 49 49 54 56 53 50 48 50 55 59 62 63 63 64 67 70 75 83 89 92 94 98 100 99 98 97 95 92 91 92 94 93 88 83 82 83 82 81 79 76 75 75 75 75 76 75 75 75 75 75 75 74 74 74
80 78 76 73 68 63 60 58 54 51 53 54 52 49 49 51 54 57 59 59 60 60 59 60 63 68 75 83 89 92 94 97 98 96 95 95 94 94 94 93 89 86 84 84 84 85 85 84 83 81 79 77 77 78 78 78 78 77 77 77 77 76 75
72 70 69 66 61 59 59 56 50 49 50 49 48 50 52 53 54 57 57 57 56 54 53 55 58 62 67 75 82 87 90 93 94 93 93 95 95 94 94 91 88 87 87 85 84 82 81 82 86 86 84 82 82 83 82 81 80 79 80 79 78 77 76
66 65 64 61 58 57 58 54 49 49 50 48 48 51 53 52 54 56 57 56 55 53 51 52 54 55 61 68 74 78 83 87 88 88 91 94 93 92 91 87 84 87 89 89 86 84 81 81 82 84 85 85 86 86 86 84 82 82 81 80 79 78 77
66 64 62 60 59 59 57 52 48 49 52 52 50 49 50 52 54 56 57 57 56 55 54 52 51 50 54 60 64 68 73 78 80 81 84 87 87 87 86 83 82 86 91 90 88 88 87 86 86 88 88 88 89 89 88 87 85 84 82 81 80 79 78
63 61 61 61 60 58 54 49 47 47 49 52 51 49 50 51 51 52 55 56 55 54 52 51 48 45 47 50 53 57 62 66 69 70 73 75 77 76 76 77 79 84 88 88 86 86 89 90 91 93 93 91 91 90 88 86 87 85 83 81 80 80 80
57 58 61 59 56 54 51 51 53 51 47 50 53 51 49 50 49 50 53 54 53 50 46 44 43 41 40 41 42 44 48 51 54 59 62 65 67 67 65 67 73 80 85 84 79 77 81 85 87 87 88 89 90 90 88 87 87 86 83 81 81 81 82
53 52 55 53 52 53 53 53 54 50 43 45 51 52 49 48 49 51 53 54 55 52 45 41 39 38 36 33 30 29 30 31 36 44 49 51 55 58 58 62 72 78 77 75 72 71 74 79 83 84 85 87 89 87 85 85 84 83 82 82 82 82 82
52 49 52 55 54 54 54 53 53 50 44 44 49 50 49 48 49 50 51 52 54 53 47 41 40 40 37 31 27 24 22 21 22 28 34 37 42 49 55 61 68 69 65 64 67 70 73 78 83 87 88 89 88 86 84 83 82 81 81 81 82 81 80
52 49 52 53 52 53 56 56 55 52 47 47 50 50 50 50 48 46 46 48 49 49 48 45 45 44 40 35 31 28 26 27 28 31 35 40 46 53 60 66 70 71 71 71 71 71 73 78 83 86 89 90 90 88 87 86 84 83 82 81 81 80 79
51 50 52 52 52 54 56 55 55 52 49 49 51 51 51 49 45 42 44 46 46 46 48 50 49 46 44 41 39 38 39 40 40 41 45 51 58 63 66 68 71 75 79 81 81 81 84 86 87 87 88 89 88 85 85 84 83 82 81 80 80 80 79
50 50 53 54 53 52 50 49 51 51 49 48 48 48 46 45 43 42 43 43 43 46 51 54 52 49 46 45 44 46 48 50 50 50 51 55 60 66 69 69 69 69 71 73 76 79 82 85 87 88 88 86 84 83 83 83 82 82 81 80 79 79 78

ECMWFFLT2_250_spd_009.txt.gz
Wind_Speed
37 38 41 44 46 50 57 62 63 62 63 64 65 66 63 60 55 52 49 45 42 43 41 42 43 39 37 36 35 35 35 34 34 34 32 31 34 34 34 35 33 31 30 29 29 29 28 28 28 27 25 22 22 22 20 19 18 17 17 18 21 23 24
40 38 40 42 42 45 50 54 58 65 70 68 67 68 65 61 56 52 51 50 49 47 43 44 45 41 39 40 38 38 37 36 36 37 34 33 36 36 35 36 34 32 32 32 32 32 30 29 27 26 24 23 26 26 23 20 20 20 20 20 22 24 26
45 42 39 39 40 43 46 49 55 64 69 67 67 69 66 63 59 56 55 55 54 50 46 46 47 45 43 43 43 42 41 38 38 39 37 36 39 39 38 39 37 34 34 35 35 33 31 30 28 27 26 26 28 29 27 24 22 23 23 23 24 26 27
50 46 39 37 40 43 45 48 51 56 60 63 67 69 68 66 64 62 60 59 56 50 49 49 49 47 47 47 46 44 44 42 40 41 40 37 39 41 40 41 39 37 37 37 35 34 33 31 30 30 29 29 30 30 29 27 25 25 26 26 27 27 28
52 47 42 41 44 45 46 48 49 49 53 59 65 69 70 68 67 66 63 61 55 51 52 54 52 52 51 50 50 48 46 46 44 44 43 40 40 42 43 43 42 39 39 37 36 36 35 34 33 32 32 31 31 30 30 29 28 28 28 29 29 29 30
53 49 47 47 46 47 49 49 48 48 50 55 60 64 66 67 68 68 68 65 58 54 57 58 57 56 54 53 52 51 49 50 48 47 46 44 43 44 45 46 44 41 39 38 37 37 37 36 35 34 33 33 32 32 33 32 31 31 30 31 31 31 31
56 54 51 47 46 49 51 49 47 49 50 52 55 57 61 67 69 71 73 70 62 58 60 62 60 59 58 56 55 52 52 53 50 50 50 47 45 47 47 48 48 43 40 39 39 39 39 39 37 36 35 34 33 34 34 34 34 34 33 33 32 32 33
60 59 54 45 44 49 51 48 47 50 51 50 51 53 57 64 67 71 75 72 64 62 63 64 64 62 61 60 57 54 55 56 54 53 54 49 46 49 50 49 50 47 43 42 41 41 42 41 39 39 38 36 36 35 34 34 34 34 35 35 34 33 34
62 62 56 45 41 46 50 49 48 49 50 50 52 53 56 60 60 64 72 72 67 66 66 67 66 65 64 63 60 58 59 59 57 56 56 52 49 50 51 49 50 49 47 45 44 44 44 43 41 41 41 40 39 37 36 35 35 35 37 38 36 34 35
64 62 60 55 52 51 51 52 51 49 50 52 54 54 56 56 54 57 65 70 70 70 69 70 70 69 68 65 64 64 62 61 60 58 57 56 54 53 52 50 51 51 49 48 49 48 47 45 43 43 44 43 42 40 38 37 37 37 37 38 37 36 36
67 64 64 65 64 56 51 52 54 51 50 52 55 56 55 51 52 55 56 60 69 73 72 72 74 73 71 69 68 68 66 64 62 60 58 57 57 57 56 53 53 54 52 51 53 52 49 47 47 47 47 46 44 43 41 40 40 40 39 40 42 42 42
70 68 68 69 68 62 53 51 54 54 53 53 54 54 51 50 54 55 50 50 60 68 73 76 76 77 76 74 72 72 71 68 66 64 61 59 59 59 59 57 56 55 54 54 55 54 51 50 50 50 50 49 47 45 45 44 43 43 44 46 47 47 47
72 72 72 70 69 68 58 50 51 53 54 55 53 49 48 52 56 52 47 49 53 58 67 76 79 79 79 78 76 74 74 72 69 67 65 64 63 62 61 61 59 58 57 57 56 56 55 54 53 52 51 51 49 47 47 47 46 46 47 49 50 49 50
77 76 74 70 70 72 66 53 50 52 53 54 53 49 48 53 55 50 48 52 54 52 57 67 77 81 81 82 81 77 75 75 74 72 70 68 67 65 63 63 62 61 60 59 58 59 58 56 54 53 52 52 51 49 49 49 49 48 49 51 52 51 52
83 78 74 72 72 73 74 64 52 49 51 53 53 52 51 51 53 51 50 52 53 51 51 57 68 78 83 85 83 80 78 77 77 76 73 71 71 68 66 65 65 63 62 61 61 60 59 58 56 55 54 55 53 51 51 52 51 51 51 52 54 54 54
87 79 75 75 73 75 80 72 54 45 50 54 53 51 50 49 50 51 52 51 49 50 51 54 61 71 80 85 84 82 81 79 79 79 77 74 74 72 69 68 67 66 64 63 61 60 60 60 58 57 57 57 56 54 53 53 53 52 52 54 56 57 57
89 82 78 77 79 82 78 66 57 57 59 58 54 51 49 48 50 52 53 51 47 48 54 58 58 61 69 79 84 84 84 83 82 82 81 79 77 74 72 72 72 69 67 66 63 62 62 62 60 59 59 59 58 56 54 53 53 53 54 56 58 59 60
93 87 83 82 84 83 71 62 68 73 68 60 57 54 49 48 50 53 53 52 50 50 54 58 59 58 60 69 79 83 85 86 85 85 85 83 80 75 72 73 74 70 68 69 68 65 64 64 63 61 61 60 58 56 55 54 54 55 56 58 60 62 62
99 92 89 88 87 79 70 70 77 77 70 65 62 58 53 52 54 56 56 55 53 51 51 55 58 58 57 61 70 78 82 85 87 87 86 85 84 81 77 77 76 73 71 72 72 69 66 66 65 63 62 61 58 56 55 55 56 57 58 60 62 64 65
105 98 95 94 88 79 75 76 78 78 76 73 68 62 60 60 62 61 59 56 53 50 50 53 55 57 56 57 61 68 75 81 84 88 88 87 87 88 86 83 80 77 75 75 75 73 70 69 67 65 64 62 60 58 58 58 59 59 60 61 63 66 67
110 103 100 96 90 85 81 79 79 81 81 78 72 67 64 64 67 64 57 52 49 48 49 52 53 54 56 58 60 62 68 76 81 86 89 91 90 90 89 86 83 81 79 78 79 76 74 72 70 67 66 64 62 61 61 60 61 61 61 61 63 66 68
114 107 103 99 94 89 84 82 82 84 84 81 76 71 69 69 69 64 55 50 49 49 50 51 53 55 56 59 62 64 68 73 79 84 88 91 92 92 90 89 88 86 84 82 81 79 78 77 75 71 69 67 64 63 63 62 62 62 60 59 62 66 69
115 110 105 101 96 89 85 85 85 85 87 84 78 76 75 71 66 63 56 50 49 51 52 53 55 58 59 60 62 66 69 72 75 80 84 88 92 93 93 92 92 91 88 85 83 81 80 80 78 74 72 70 68 66 65 64 63 62 61 61 63 67 69
115 111 107 102 96 90 87 87 86 87 89 85 81 80 77 68 64 64 60 54 52 53 54 56 58 60 61 61 63 67 69 70 72 75 80 84 89 91 93 94 95 94 91 88 86 83 81 81 80 78 74 72 70 68 67 65 64 63 63 63 65 68 71
117 113 108 103 99 94 90 88 88 89 90 87 83 80 75 68 66 67 64 59 57 55 54 56 59 60 60 61 64 67 69 71 72 74 76 80 83 87 90 93 95 95 93 90 87 84 81 81 82 81 77 74 71 69 67 65 63 64 65 66 67 70 73
118 113 109 105 101 98 93 90 90 90 90 88 83 78 72 67 67 67 65 60 56 54 54 55 58 60 61 62 65 68 69 71 73 73 73 74 78 82 86 90 93 94 94 92 89 85 82 83 84 84 80 75 72 70 67 64 64 66 67 68 70 72 75
115 112 110 106 102 99 95 92 92 91 91 89 83 77 73 71 68 66 64 60 56 55 57 58 59 60 61 62 64 67 69 70 71 71 69 68 71 76 80 85 89 91 92 93 91 88 85 84 85 85 81 76 72 70 67 64 64 67 68 69 71 74 76
112 111 109 105 102 100 99 97 95 93 91 88 81 75 73 71 67 62 58 57 57 58 59 59 58 57 58 59 61 64 67 68 68 67 65 65 67 71 75 79 82 84 87 89 89 89 87 85 84 84 80 75 72 71 69 68 68 68 67 67 70 73 76
108 109 106 101 97 96 95 95 95 92 89 85 80 75 73 70 66 62 58 58 60 61 59 58 57 56 56 57 58 61 64 65 64 63 61 61 63 67 71 74 75 78 81 84 86 87 85 83 82 80 76 74 73 72 70 71 71 67 63 64 68 71 73
103 104 103 97 93 90 87 86 86 85 84 84 81 77 74 71 68 66 63 61 60 59 57 57 57 57 57 56 57 59 61 62 62 61 59 58 58 62 67 71 73 74 75 77 80 81 80 78 77 75 74 77 78 75 71 71 70 66 60 58 60 63 66
100 100 99 92 84 81 77 73 73 73 74 75 76 74 73 71 68 66 64 62 58 56 54 55 56 57 57 58 57 57 58 59 58 57 57 56 55 57 62 67 70 70 69 70 72 72 71 69 68 68 73 78 78 73 70 70 72 70 63 55 52 54 58
95 95 95 89 79 70 60 53 57 64 66 67 69 70 70 69 65 63 64 63 59 56 54 54 55 56 56 57 56 56 56 55 54 52 52 51 49 51 56 62 64 64 64 63 62 62 62 62 62 67 72 74 71 66 63 64 71 76 71 62 58 57 58
89 88 88 87 83 76 64 52 52 61 67 67 66 65 64 63 59 59 62 62 58 55 54 52 53 53 53 54 54 53 53 53 51 48 46 45 43 45 50 55 57 57 57 57 55 55 56 57 58 62 65 64 62 60 56 57 65 71 68 65 66 65 64
86 85 82 77 77 79 73 59 50 55 63 67 66 62 59 57 56 57 60 59 55 52 51 49 49 51 52 52 51 50 50 51 49 47 45 43 41 41 44 47 48 48 48 48 48 49 50 51 52 54 54 53 55 54 50 51 58 62 60 61 65 68 70
81 81 78 71 67 66 62 51 42 44 50 56 59 57 55 56 56 57 57 56 53 51 52 51 51 51 52 51 49 48 48 49 48 46 44 42 39 37 36 35 34 34 35 36 37 38 41 43 46 49 51 53 54 52 48 50 56 61 63 65 66 69 74
74 74 74 69 62 56 51 45 42 44 46 47 51 55 56 57 58 57 55 53 52 52 54 54 53 53 53 51 48 45 44 45 44 43 42 41 38 35 33 31 30 28 28 28 27 28 34 39 41 44 49 53 55 53 51 52 58 66 72 73 73 74 76
68 67 67 65 59 54 50 46 43 47 49 49 49 53 56 58 58 56 54 52 50 50 52 53 53 54 53 51 47 43 43 44 43 41 42 40 36 34 35 35 33 31 29 28 27 26 30 36 39 41 46 51 56 59 60 59 61 65 71 74 76 77 78

ECMWFFLT2_250_spd_012.txt.gz
Wind_Speed
33 33 34 32 28 29 32 33 34 36 41 44 47 50 54 55 52 49 50 49 45 42 39 38 37 37 38 37 35 34 33 33 33 33 35 36 37 38 38 38 37 35 32 30 29 28 28 28 28 27 25 24 25 25 25 24 23 21 20 18 19 19 21
36 38 37 32 27 28 29 30 34 39 39 39 40 44 50 54 53 52 54 53 51 47 43 41 41 41 42 40 38 38 37 35 34 34 36 37 38 38 39 40 39 37 35 33 33 32 31 30 30 28 26 25 26 26 26 26 26 25 24 22 21 21 23
40 41 36 31 28 28 29 32 35 38 38 38 38 40 45 51 54 56 56 55 54 52 48 48 46 45 45 45 43 42 40 39 38 37 37 38 38 37 39 41 40 38 37 35 34 33 32 32 31 29 28 27 27 26 25 26 26 27 27 26 24 23 25
44 41 35 32 32 33 34 35 35 36 37 38 39 39 40 44 50 54 57 57 55 54 54 53 50 49 49 48 46 45 44 43 43 41 40 40 39 38 40 42 41 40 39 36 35 34 33 33 32 30 30 30 30 27 25 26 27 28 28 28 27 27 28
45 40 35 35 38 40 39 35 34 36 37 37 39 38 38 40 44 49 54 56 56 56 58 57 53 53 53 50 48 48 48 47 46 45 43 43 41 41 42 42 42 41 40 37 36 36 35 34 33 33 33 32 31 29 28 28 28 29 29 29 29 30 32
47 43 42 42 41 42 42 37 35 37 38 36 35 36 38 40 41 43 48 52 55 59 62 60 57 56 57 55 52 51 50 50 49 47 46 45 44 43 44 44 43 43 42 40 39 38 38 36 35 35 34 33 33 33 31 30 30 30 30 29 30 32 34
51 48 48 46 43 43 44 40 37 38 36 33 31 33 37 40 40 42 43 45 51 60 64 64 62 60 60 60 57 54 52 51 51 50 49 49 47 46 46 46 45 45 45 43 41 40 40 38 38 37 37 35 35 34 33 32 32 32 31 31 32 33 35
55 53 52 50 48 47 43 40 41 41 37 34 35 35 36 39 40 42 41 39 45 57 65 66 65 64 63 63 61 59 56 54 53 53 52 52 51 49 48 49 48 48 47 45 42 41 41 41 40 40 39 38 36 35 35 35 34 34 34 34 34 35 36
58 56 54 52 51 49 45 43 45 46 44 42 41 38 37 37 38 42 42 39 40 50 60 65 67 66 65 65 65 64 61 58 56 56 55 55 54 52 51 51 52 51 50 47 44 43 43 42 42 42 41 39 37 36 36 36 36 36 36 37 38 37 37
60 58 56 55 54 53 49 47 48 50 50 48 43 39 37 34 36 42 42 38 40 46 53 59 65 66 66 67 68 67 65 63 60 58 58 58 57 55 53 54 54 54 53 51 49 47 46 45 44 43 43 41 40 39 39 38 38 39 39 39 40 40 39
64 61 60 61 61 59 55 53 53 54 54 54 50 41 31 29 35 40 39 39 41 43 46 53 59 64 66 69 70 69 69 67 64 62 61 60 59 57 57 57 56 55 55 55 53 51 50 48 47 46 45 44 43 42 41 40 40 41 41 41 41 41 41
68 65 65 67 66 63 60 58 57 57 56 58 56 45 33 32 36 35 35 39 41 42 44 48 53 59 63 68 72 72 71 70 68 66 64 62 60 58 58 59 58 57 58 59 58 55 53 52 50 49 48 46 45 45 44 43 43 44 44 43 43 43 43
72 70 70 70 69 66 65 64 61 59 58 57 56 50 44 42 37 31 34 41 41 42 44 46 50 55 58 64 70 72 72 72 70 69 68 65 63 61 60 61 61 60 60 61 61 57 55 55 54 53 51 50 49 49 47 46 46 46 45 44 45 45 45
76 74 73 73 73 71 69 68 65 62 60 57 55 55 53 47 36 32 37 40 39 42 45 46 48 51 52 57 63 67 71 73 73 73 71 69 68 65 63 63 63 63 62 62 62 60 58 57 57 56 54 53 53 52 50 49 48 47 46 46 46 47 47
80 77 75 75 76 75 74 74 70 66 63 59 57 57 57 51 42 39 40 38 36 40 45 46 47 49 49 51 55 59 64 69 74 76 74 73 72 69 67 66 66 65 64 64 63 62 61 60 59 58 56 55 54 53 52 52 51 50 48 46 47 49 50
83 79 78 78 77 78 81 78 71 67 66 63 59 57 57 54 50 49 45 37 35 42 47 45 44 46 47 48 52 55 58 63 70 75 77 76 74 73 72 71 70 69 68 67 65 64 64 63 62 61 59 57 56 54 54 54 53 51 49 48 49 51 53
86 82 81 80 80 85 84 72 66 68 69 65 61 58 58 56 55 55 49 40 41 47 46 42 42 44 46 48 51 54 56 58 63 69 74 76 76 76 76 75 74 73 72 70 68 66 66 64 63 62 61 59 58 57 56 55 54 52 52 52 52 53 54
89 85 84 84 88 89 79 69 70 75 73 69 66 64 61 60 58 57 52 47 48 48 42 40 42 44 45 47 50 53 55 57 58 61 66 71 76 78 79 78 77 77 76 74 72 70 68 66 65 64 63 62 60 58 57 56 55 55 54 54 54 54 55
94 90 88 90 92 85 75 72 77 79 77 77 76 72 68 64 60 57 55 51 46 44 42 41 43 44 44 44 46 49 52 55 57 57 58 63 69 75 79 81 80 79 79 77 75 74 71 69 68 67 65 64 62 60 58 57 57 56 56 56 55 55 56
100 96 94 94 91 83 76 76 77 78 81 83 82 79 75 68 62 59 58 55 47 42 42 44 45 46 45 45 46 48 49 50 54 57 57 58 62 67 73 78 81 82 81 80 78 76 74 73 72 71 69 66 64 63 61 59 58 58 58 57 57 57 58
105 101 99 97 92 85 82 80 78 80 85 85 85 85 80 72 65 61 60 59 54 48 45 47 48 48 48 49 49 48 48 49 51 55 58 59 59 62 67 73 77 81 82 82 80 78 77 76 76 75 74 71 69 67 64 62 61 60 60 59 59 59 59
110 105 103 101 96 91 87 85 83 83 85 86 87 87 83 76 68 63 62 62 58 54 52 51 50 50 52 54 51 48 48 50 51 53 57 60 60 61 64 68 72 77 81 84 84 82 80 80 79 79 78 76 73 71 69 66 65 63 61 61 61 61 60
113 109 106 103 100 96 93 91 88 86 88 89 89 88 85 78 71 67 66 65 62 59 58 57 55 54 55 55 53 52 51 51 51 53 55 58 60 60 61 63 65 69 74 80 84 84 83 82 82 81 81 80 78 76 74 71 69 65 62 62 63 64 64
115 112 110 106 103 101 99 97 92 90 90 91 90 89 85 78 72 71 69 68 67 65 63 61 59 58 59 58 57 57 55 53 51 52 53 55 58 60 60 60 61 63 67 72 77 81 83 84 85 85 85 83 82 80 77 74 69 65 64 65 67 67 67
117 114 113 109 105 103 102 100 96 94 93 92 90 89 85 78 75 75 73 71 71 69 66 65 64 62 62 63 63 62 59 56 54 53 53 54 56 59 61 61 60 61 63 66 69 74 79 82 84 87 87 86 85 83 81 77 71 69 70 71 71 70 69
119 118 117 113 108 106 106 104 100 95 92 91 91 89 85 80 78 77 76 74 72 70 69 69 68 67 65 64 66 65 61 59 58 56 56 56 56 59 61 62 62 61 62 63 65 67 72 75 78 83 87 87 87 86 85 81 77 76 77 76 74 73 72
123 122 120 116 112 108 104 103 102 100 96 93 92 89 85 81 81 79 77 76 74 71 71 72 71 70 68 66 66 65 63 62 60 57 57 57 57 59 60 62 64 63 61 62 62 63 66 69 73 79 83 86 88 87 86 84 82 81 81 80 77 76 75
125 123 120 118 116 111 103 98 98 99 98 96 93 89 85 82 81 80 79 77 76 74 74 75 74 72 70 66 64 64 63 61 59 57 56 57 58 60 60 61 63 63 62 62 61 61 63 65 68 72 77 81 85 86 86 86 86 86 85 83 81 79 77
124 121 116 112 110 108 104 101 99 95 91 90 88 86 85 83 81 80 79 78 79 79 78 77 77 74 70 65 63 62 61 60 59 59 58 57 58 60 61 61 62 62 62 62 62 61 61 62 64 67 70 74 78 81 82 84 87 88 87 85 84 82 81
117 115 112 105 96 94 91 88 89 89 86 84 82 78 79 82 82 80 80 79 80 81 80 79 79 76 70 65 63 61 60 58 57 55 55 56 58 60 62 63 63 63 62 62 62 62 62 61 61 63 65 67 69 72 77 79 80 81 81 82 85 86 86
108 103 103 97 88 86 85 78 75 77 77 77 78 75 74 77 78 78 79 80 80 79 79 78 78 75 70 67 65 62 59 55 53 51 52 55 59 60 62 63 64 64 63 63 63 63 61 60 59 60 62 64 64 65 69 71 71 70 71 78 87 92 91
106 96 92 89 84 84 86 84 80 77 74 73 74 73 72 74 75 77 78 79 79 78 78 78 77 74 72 69 66 63 60 58 56 55 55 57 59 61 61 62 63 63 63 63 62 61 60 59 58 57 59 61 62 63 65 67 70 71 74 79 86 89 90
105 97 90 92 91 85 82 86 89 85 79 76 75 74 74 75 77 78 79 80 80 79 78 79 78 75 73 70 67 64 63 61 59 58 57 57 59 60 61 61 62 62 61 61 60 58 58 57 57 56 56 57 59 62 64 66 69 73 77 80 81 82 83
101 97 92 96 100 93 87 90 94 90 85 83 81 79 78 77 77 77 77 76 76 76 76 77 76 74 72 70 67 65 64 61 58 56 56 56 57 60 61 61 61 60 59 58 56 56 56 56 55 55 55 54 55 58 61 65 67 71 76 81 83 81 77
97 95 93 94 97 95 92 93 93 90 86 83 81 79 77 74 72 69 68 68 68 70 71 72 71 69 67 64 63 63 61 59 56 54 55 55 56 58 61 61 60 59 57 56 55 54 53 53 53 52 52 52 54 55 58 62 64 66 70 75 80 81 74
98 95 91 88 87 88 88 86 84 82 81 80 79 75 71 68 66 62 60 61 62 63 64 65 64 64 62 60 59 59 58 57 56 55 55 56 56 58 60 60 59 57 55 55 55 53 51 50 49 48 47 48 50 51 54 57 58 61 64 67 72 73 70
99 95 91 87 85 85 83 79 77 76 75 76 75 71 65 64 64 61 57 58 60 60 60 61 60 59 59 57 56 56 57 56 56 56 56 57 58 59 58 58 57 55 54 54 53 51 50 48 45 41 38 37 39 42 46 48 50 53 55 58 62 65 66

ECMWFFLT2_250_spd_015.txt.gz
Wind_Speed
31 30 31 26 20 21 21 16 16 24 27 22 20 24 29 34 40 45 48 47 46 44 42 41 39 38 37 36 34 33 33 32 31 32 33 34 33 33 33 33 34 33 31 30 29 28 27 26 26 25 24 22 21 21 21 22 22 22 21 22 22 23 23
35 35 32 26 21 20 18 16 21 26 22 19 18 20 23 28 33 41 47 49 49 46 44 45 44 42 41 40 39 39 37 35 34 34 36 37 36 35 35 35 35 35 34 32 32 32 31 30 29 28 26 25 25 24 24 24 24 24 24 25 26 26 27
39 38 33 27 23 22 21 23 25 22 18 19 19 18 21 24 27 33 40 46 49 48 49 50 48 46 45 43 42 42 41 39 38 37 38 38 39 38 37 36 37 38 37 36 35 34 33 33 31 30 28 28 28 27 26 26 25 25 25 27 27 28 29
42 39 32 27 27 28 28 28 25 22 20 20 20 19 20 20 21 25 31 40 48 52 54 54 51 50 48 46 45 44 43 42 42 41 39 39 39 40 40 39 39 40 39 39 38 36 36 36 35 33 32 31 31 29 28 28 27 27 27 28 28 29 31
43 38 33 31 32 33 32 29 27 26 23 22 21 18 18 19 19 20 24 31 42 51 55 55 54 52 51 48 47 47 46 44 43 43 42 41 40 40 41 40 40 41 41 40 40 39 39 39 38 37 35 35 34 32 31 30 29 29 29 29 30 31 32
43 41 39 38 39 39 36 32 30 29 25 21 18 14 15 17 16 18 20 24 34 45 51 54 55 53 52 51 50 50 49 46 45 45 45 43 42 42 42 42 42 43 42 42 42 42 42 42 41 40 38 37 36 36 34 31 31 31 31 31 31 32 33
48 47 46 44 42 42 39 34 32 31 28 23 18 15 17 17 15 18 19 21 31 39 43 48 53 54 54 54 54 53 52 49 48 47 46 46 45 45 45 44 44 44 44 44 43 42 42 43 42 41 40 39 39 38 36 34 33 33 33 32 33 34 34
54 52 50 47 44 44 41 37 36 35 32 29 25 24 24 19 14 17 18 20 30 35 35 39 45 50 54 56 56 56 55 54 52 51 49 48 48 48 48 47 46 46 46 45 44 43 43 43 43 42 42 41 40 39 38 37 36 35 35 34 35 35 36
57 55 53 49 46 46 44 41 41 38 36 35 31 30 29 22 17 18 18 20 30 36 35 34 36 42 49 55 58 58 57 57 56 55 53 51 51 51 51 51 50 48 48 47 46 45 44 44 44 44 44 43 42 41 40 39 39 37 37 36 36 37 38
59 57 55 52 52 52 48 45 44 41 40 39 36 34 31 25 23 22 19 21 30 37 38 34 33 36 40 47 55 58 60 60 58 57 56 55 54 54 53 54 53 52 50 49 48 47 47 46 45 46 46 45 44 43 43 42 41 40 39 37 38 39 39
61 59 58 58 59 57 51 49 49 47 45 44 42 38 30 26 26 24 22 26 30 34 39 39 36 35 35 38 45 52 58 61 61 60 59 58 57 57 56 55 54 54 53 52 51 50 49 48 48 48 47 47 46 45 45 45 43 42 40 39 39 40 40
64 62 61 63 63 60 56 55 54 51 50 50 46 39 32 32 31 26 27 31 31 31 38 42 40 35 33 33 36 41 49 57 61 62 61 61 60 59 58 57 56 55 55 55 55 54 53 52 51 50 49 48 48 47 47 46 45 44 43 41 42 42 42
68 65 65 67 68 65 62 61 59 57 56 54 49 42 39 39 35 31 33 36 32 30 34 40 42 38 34 33 32 34 39 46 55 61 63 63 63 62 61 60 59 59 58 58 58 58 57 56 54 52 51 50 50 50 49 48 47 47 45 44 44 44 45
72 70 69 70 71 69 67 65 63 61 60 57 52 48 46 44 40 39 40 38 34 33 33 36 40 40 38 36 33 33 35 38 44 52 59 63 65 65 64 63 63 62 62 61 61 60 59 58 56 55 54 54 53 53 52 50 50 49 48 47 47 47 48
76 75 74 74 75 74 71 68 65 63 61 58 55 52 50 47 45 45 44 40 38 37 35 35 39 41 42 41 37 35 36 36 38 43 50 57 62 66 67 66 65 65 64 64 63 62 61 60 59 58 57 58 57 56 55 54 54 52 51 50 50 50 51
80 80 80 79 78 77 75 70 66 63 61 59 56 56 55 52 50 49 46 41 40 40 39 39 41 42 44 44 42 38 37 36 37 39 43 47 53 59 64 66 67 67 67 66 65 65 64 64 62 61 61 61 61 60 60 59 58 56 54 54 54 53 54
83 84 85 83 81 82 77 69 64 63 63 62 60 60 59 56 55 53 48 43 43 44 44 43 44 44 44 44 41 38 37 37 37 38 40 42 45 49 54 59 64 67 69 69 68 68 68 67 66 65 64 63 63 63 63 62 61 59 58 58 58 57 57
86 88 89 86 85 83 75 68 69 70 68 65 65 64 62 60 58 55 51 49 49 48 47 47 47 47 45 42 39 37 37 37 37 39 40 41 43 44 47 50 55 61 67 70 72 73 72 71 70 70 68 66 66 65 65 64 63 62 61 62 61 61 61
89 90 92 90 87 80 73 73 77 75 72 72 73 70 66 63 60 56 54 53 53 52 51 51 50 48 44 40 38 38 38 38 38 39 40 42 45 46 47 47 50 55 61 67 72 75 75 75 74 73 71 70 69 68 67 66 65 63 63 64 63 64 64
92 93 94 92 86 79 77 79 80 78 78 79 77 72 68 65 61 59 57 56 55 56 56 55 53 51 47 44 42 40 40 40 40 39 40 42 45 48 50 49 50 52 57 62 67 72 75 76 76 75 74 74 72 71 70 69 67 66 66 65 65 66 66
95 94 95 92 85 81 81 81 81 81 82 81 78 74 70 67 64 62 60 58 58 58 59 58 56 54 52 51 48 45 43 41 39 39 40 41 44 48 50 51 52 52 54 58 61 65 69 73 76 77 78 77 76 75 74 73 71 70 69 68 67 68 69
97 96 95 91 87 84 83 82 81 81 81 80 80 78 74 71 67 64 62 61 61 61 61 60 59 57 56 54 51 48 47 45 41 40 41 42 44 47 49 51 52 53 54 56 57 60 62 64 68 73 77 79 79 78 77 76 76 74 72 70 70 71 71
99 97 94 91 89 86 84 83 82 81 80 81 82 82 78 73 69 66 64 64 63 63 64 63 61 60 59 57 53 51 50 48 45 44 44 44 45 48 50 50 51 53 54 54 55 57 58 59 61 65 70 75 78 79 80 80 80 78 76 75 75 75 75
101 97 94 93 91 87 85 84 83 82 81 82 84 84 79 73 70 69 68 67 66 66 66 65 64 63 61 60 58 55 53 51 49 48 47 46 47 49 51 51 51 52 54 55 55 56 57 58 60 61 63 65 69 73 77 81 82 81 80 79 80 80 80
102 99 96 94 92 89 87 86 84 83 83 84 85 84 78 75 74 74 72 71 70 69 68 67 66 65 64 62 61 59 58 56 54 52 50 50 49 50 50 51 50 51 53 54 56 57 58 58 59 61 62 62 62 65 70 75 78 81 83 84 84 84 84
104 100 97 96 94 91 90 89 87 85 85 86 86 84 80 79 79 77 76 75 74 73 72 70 68 67 65 64 63 63 61 60 58 56 55 54 53 52 51 51 51 52 51 52 53 55 57 59 60 61 61 61 61 63 64 67 70 75 81 84 86 87 87
106 103 100 97 95 92 91 91 90 88 87 88 88 85 83 82 81 80 79 77 77 76 75 74 72 69 68 66 65 65 64 63 62 61 60 59 57 55 54 53 53 53 53 53 53 54 55 57 60 61 62 61 61 62 61 62 65 69 74 79 83 86 88
108 106 102 98 95 93 93 93 91 89 88 89 89 87 85 83 82 83 83 82 80 79 78 77 75 72 70 69 67 67 67 66 66 65 64 63 61 58 57 57 56 55 55 55 55 55 55 56 58 60 62 62 61 61 60 60 62 65 68 72 77 82 85
110 107 104 101 97 94 93 94 93 91 90 89 89 88 86 84 84 84 85 86 85 83 81 80 78 75 73 72 70 69 69 69 69 69 68 66 64 61 60 59 58 57 56 56 57 56 56 56 57 58 60 61 61 60 60 61 61 63 65 69 72 75 79
113 110 108 105 100 94 94 96 95 92 89 88 88 89 88 87 87 87 89 89 89 87 85 82 80 78 76 74 73 72 73 73 73 72 70 69 67 65 63 62 60 58 57 58 58 57 57 57 58 59 60 60 60 60 59 59 60 61 63 65 67 70 73
115 113 111 107 102 97 95 96 94 89 84 80 80 82 82 81 80 81 84 88 91 92 90 85 82 80 77 76 76 75 76 77 76 73 72 71 70 69 66 64 62 60 58 58 58 58 58 58 59 59 60 60 60 59 58 58 58 59 61 62 64 66 69
118 117 113 110 105 97 89 87 85 82 77 70 67 70 69 65 63 62 63 69 76 82 86 85 82 80 78 76 78 79 79 79 77 75 74 73 72 71 69 67 65 62 59 59 59 59 58 57 57 57 59 59 59 59 58 57 57 57 59 60 62 65 67
121 120 116 115 108 95 86 84 79 75 72 68 68 72 68 58 55 55 56 58 60 62 70 76 77 77 76 75 77 79 79 79 78 77 76 76 74 73 72 70 68 64 61 61 61 60 58 57 57 57 57 58 59 59 58 57 56 56 57 59 61 63 65
122 121 119 118 106 88 84 90 88 81 78 73 72 79 80 71 63 59 58 60 61 61 64 70 73 76 76 76 77 79 80 80 80 80 79 78 76 73 73 71 68 64 62 62 62 62 60 59 59 58 58 59 60 59 58 57 55 54 55 57 59 61 63
118 118 118 118 105 82 74 80 84 82 82 78 74 79 84 81 77 73 66 63 66 70 72 72 73 75 76 77 78 79 79 80 80 81 80 77 74 73 72 70 66 63 63 64 63 63 62 60 59 59 59 60 60 59 58 56 55 53 54 55 56 57 59
111 113 114 115 111 92 75 72 76 75 72 71 71 74 75 72 72 75 74 68 67 71 74 74 73 73 74 76 77 78 77 78 77 77 75 73 71 70 69 67 65 64 65 65 65 64 63 61 59 59 59 60 60 59 57 56 55 53 52 51 51 52 53
103 106 108 109 112 104 87 78 81 80 73 69 67 66 65 63 64 70 74 71 66 67 71 73 74 74 73 73 75 76 76 76 73 71 69 68 67 68 67 66 66 66 66 66 67 66 64 62 60 60 60 60 59 59 57 56 54 52 49 46 45 45 44

ECMWFFLT2_250_spd_021.txt.gz
Wind_Speed
46 46 44 39 35 34 29 24 24 27 26 21 19 21 22 24 28 33 38 43 48 50 47 46 44 42 39 37 34 32 30 28 27 26 25 23 23 25 27 28 28 29 29 29 29 29 29 30 30 30 30 30 30 31 31 30 28 27 25 23 21 21 21
50 49 45 39 34 31 26 24 27 27 21 16 19 22 22 24 29 31 34 38 43 49 49 47 47 45 43 41 39 36 33 30 29 29 29 27 25 25 26 27 27 28 29 30 30 30 30 30 30 29 28 28 28 29 30 29 28 26 24 23 22 21 21
52 49 45 39 32 29 28 28 26 24 19 17 20 22 23 26 28 28 29 31 37 44 47 46 47 47 46 44 42 39 35 33 32 32 31 30 28 27 27 28 28 29 30 31 31 31 31 30 29 28 27 27 28 29 29 28 27 25 24 23 22 21 20
53 49 44 38 34 32 32 31 27 25 24 22 22 24 24 25 26 25 27 28 31 37 41 42 45 47 47 45 43 40 38 36 34 33 32 31 30 29 29 29 29 30 30 31 31 30 30 29 29 28 27 28 29 29 30 29 28 26 25 24 22 22 21
54 49 45 41 39 38 36 34 32 31 30 28 27 26 25 25 27 27 28 28 28 31 35 38 42 45 47 46 44 42 40 38 36 35 34 33 32 31 31 31 31 31 31 31 30 30 29 29 28 28 29 30 31 32 32 31 30 29 27 26 25 24 24
54 50 48 47 46 43 40 37 36 35 33 30 28 27 27 27 27 27 27 26 25 26 29 32 36 42 47 48 47 45 43 41 40 38 37 35 34 33 33 33 33 33 32 31 31 31 30 29 29 29 30 31 32 33 34 33 32 32 31 30 28 27 27
56 53 52 52 48 46 43 39 37 36 33 29 27 26 27 27 25 25 23 21 20 21 23 25 27 33 41 46 49 48 47 45 44 43 41 40 38 37 36 35 35 34 34 34 33 32 32 31 31 31 32 33 34 35 34 34 34 36 35 34 32 32 31
60 57 55 54 51 48 45 41 39 36 34 32 30 30 30 26 22 21 20 19 19 19 20 21 21 25 31 40 46 49 49 48 47 46 45 44 43 42 40 38 37 36 35 35 35 35 35 35 35 35 35 36 37 36 35 36 37 38 37 36 36 36 36
63 60 57 55 52 49 45 43 41 38 37 37 35 33 30 25 22 22 19 21 23 22 20 20 20 22 26 33 41 47 50 51 50 49 48 46 45 43 42 41 40 39 38 37 37 37 38 39 38 38 39 39 39 38 38 38 39 39 38 38 39 40 40
64 61 57 55 53 51 47 45 43 40 40 39 36 33 30 27 26 24 19 23 29 26 23 22 21 22 24 27 33 41 47 50 51 50 49 48 46 44 44 44 43 42 42 41 40 39 40 40 40 41 41 41 41 41 41 41 41 41 40 41 42 42 43
65 63 61 60 58 55 52 50 47 45 44 41 38 35 31 29 29 26 24 28 33 29 25 24 23 23 23 25 28 33 39 45 49 50 50 49 48 48 47 46 45 44 44 44 43 43 42 42 42 43 43 44 44 44 44 44 43 42 43 43 44 45 45
68 66 65 64 62 59 56 54 52 49 47 45 41 36 33 33 31 28 30 33 34 31 28 26 25 25 25 25 26 27 31 36 42 47 49 50 50 50 50 49 48 47 46 46 45 45 45 45 45 45 45 45 46 46 46 46 45 45 45 45 45 46 47
70 69 68 66 65 62 60 57 55 52 50 48 44 40 38 37 34 33 36 37 35 33 31 28 28 28 26 25 25 25 27 29 33 38 42 46 50 51 52 52 51 51 50 49 48 48 47 47 47 47 47 47 47 47 47 47 47 47 46 46 46 47 47
73 71 70 68 67 65 63 60 57 55 53 51 48 45 42 41 38 37 39 38 35 35 35 32 31 30 28 27 26 27 27 26 27 29 33 38 43 47 51 52 53 53 52 52 51 50 50 50 50 50 50 50 49 49 49 48 48 48 47 46 47 48 48
76 75 73 71 69 68 66 63 60 58 56 53 52 49 47 45 43 41 41 39 37 38 40 39 36 32 31 30 29 28 26 25 25 27 29 32 36 40 45 48 51 53 54 54 54 54 54 53 53 53 53 53 53 52 52 51 51 50 49 49 49 50 50
80 78 76 74 72 70 68 66 63 60 58 56 55 53 51 49 48 45 44 41 39 42 45 44 41 35 32 32 32 29 26 25 25 26 27 29 31 34 38 41 44 48 51 53 54 56 57 57 56 56 56 55 55 55 55 54 54 52 51 51 52 52 53
84 82 80 77 75 73 71 68 66 63 61 59 58 56 54 53 51 49 47 44 43 47 47 44 42 39 35 34 33 31 27 25 25 26 26 27 28 30 32 35 38 41 44 47 50 53 56 57 58 58 58 58 58 58 57 56 55 54 54 54 55 55 56
87 85 83 81 79 75 71 69 68 67 64 62 61 59 57 56 54 52 50 48 48 50 50 46 45 46 43 38 35 33 30 27 27 27 28 28 28 29 30 31 33 36 38 41 44 48 51 55 57 58 59 60 60 60 59 59 58 57 58 58 58 58 58
90 89 88 86 82 77 72 71 70 69 67 65 64 62 60 59 57 55 52 51 51 52 52 50 50 50 48 43 38 35 33 31 31 30 30 30 30 30 30 31 32 33 35 37 40 43 46 49 52 55 57 59 59 60 61 61 61 61 61 61 61 61 61
94 93 92 88 83 78 75 74 73 72 70 69 67 65 64 62 60 57 54 53 53 54 54 53 53 52 50 47 43 40 38 36 34 33 33 33 33 32 32 33 33 34 34 35 37 39 41 44 46 49 52 54 56 57 59 60 61 62 63 63 64 65 65
95 95 93 89 84 82 79 78 77 75 73 71 70 68 67 65 62 59 57 56 56 55 56 56 55 54 52 49 46 45 44 42 40 38 36 35 35 35 34 34 35 35 35 36 36 37 38 40 41 43 45 47 49 52 54 55 57 59 60 62 65 66 67
95 95 94 91 88 84 82 81 80 78 76 75 73 71 69 67 65 62 61 60 59 59 59 58 58 57 54 50 49 50 50 47 45 42 40 38 37 37 36 36 36 36 36 37 38 39 39 39 39 39 40 42 43 46 48 50 51 52 54 58 62 63 65
94 94 93 91 89 86 84 84 84 82 80 78 76 73 71 68 66 65 64 63 62 62 62 61 60 59 55 52 54 55 53 50 48 46 44 41 39 39 38 38 37 37 37 37 38 40 41 41 40 40 40 40 41 43 44 45 46 48 51 54 57 58 59
94 93 92 90 89 88 87 87 86 85 83 82 79 76 73 70 69 68 67 66 65 64 64 63 62 60 57 56 59 59 55 53 51 49 47 45 43 41 40 40 40 39 38 38 39 40 42 42 41 41 41 42 42 43 43 43 44 46 49 51 52 52 53
95 95 92 90 89 88 88 89 89 88 86 85 82 78 75 74 73 72 71 70 69 67 67 66 65 63 61 61 62 61 58 55 53 51 50 49 47 45 43 42 42 42 41 41 40 41 43 43 43 43 44 44 44 44 45 45 46 47 47 48 48 48 49
96 95 93 91 90 89 89 90 91 91 90 86 82 80 79 78 76 75 75 74 73 71 70 70 68 67 66 65 65 63 61 58 56 54 52 51 50 49 47 46 45 45 45 44 43 43 44 45 45 46 46 46 46 46 46 47 48 48 48 48 48 48 49
96 96 95 92 90 89 91 92 93 93 91 88 84 82 82 80 79 79 78 78 77 75 74 73 72 70 69 68 67 66 64 61 59 57 55 54 53 52 51 50 49 48 47 47 47 46 46 46 47 47 48 48 48 48 48 49 50 51 51 51 50 50 50
96 96 94 91 90 92 93 93 92 92 91 89 87 85 83 82 81 81 80 80 80 79 77 76 76 74 72 70 68 67 66 64 62 60 58 56 56 55 55 54 53 52 51 50 50 49 49 49 49 49 49 50 50 50 50 51 52 54 54 54 53 52 52
94 93 91 90 92 93 93 92 92 92 92 91 89 88 86 84 82 82 81 81 82 82 81 79 78 76 74 72 70 69 67 66 64 62 61 59 58 57 57 57 56 55 54 53 53 52 52 51 51 51 51 52 52 52 52 53 54 56 57 57 56 55 54
90 88 89 91 93 94 93 93 94 94 93 92 92 90 88 86 83 82 82 82 82 83 83 82 80 79 77 75 72 70 68 67 66 65 64 62 61 60 59 59 58 58 57 56 56 55 55 54 54 54 54 53 54 55 55 55 56 57 59 59 59 57 56
87 85 88 92 94 94 94 94 95 95 94 93 92 90 89 88 85 83 83 83 83 83 84 83 82 80 78 76 74 71 70 68 67 67 66 65 64 63 62 61 60 60 59 59 58 58 58 57 57 56 56 56 56 57 57 57 58 59 60 61 61 60 59
86 85 88 91 92 93 93 93 94 96 95 93 92 91 89 89 87 85 85 84 84 84 84 85 83 81 79 77 75 73 72 71 70 69 68 68 67 66 65 64 63 62 61 61 60 60 60 60 59 59 59 58 59 59 60 60 60 60 61 62 62 63 62
86 85 88 91 92 93 93 94 95 95 94 93 92 91 90 89 88 87 87 86 85 85 85 85 85 83 81 79 77 76 75 74 72 71 70 70 69 68 67 66 65 64 64 63 62 62 62 63 63 63 63 62 62 62 62 62 63 63 63 63 64 64 64
87 87 90 92 92 92 92 94 95 95 94 93 92 91 90 89 89 89 89 88 87 87 86 86 86 85 83 81 80 79 77 76 75 74 73 72 71 69 68 67 66 66 66 65 65 65 65 66 66 67 67 67 66 66 66 65 65 65 65 66 66 66 66
91 91 93 93 90 89 91 94 95 95 94 93 93 92 90 89 89 90 90 89 89 88 87 87 87 86 86 84 82 81 80 79 77 76 75 74 73 72 70 69 69 68 68 68 68 68 68 69 70 70 70 70 70 69 69 69 69 68 69 69 69 69 69
95 95 94 91 88 88 90 92 94 94 94 94 94 93 91 90 90 91 91 89 89 89 88 87 87 87 88 87 85 83 82 80 79 78 77 75 74 74 73 72 71 71 71 71 71 71 72 72 73 73 73 73 73 73 72 72 73 73 73 72 72 72 72
98 97 95 91 89 89 89 90 91 92 92 93 93 93 92 91 90 92 93 91 89 89 89 89 89 89 89 88 86 84 82 81 80 79 78 77 76 76 75 74 74 74 75 75 75 75 75 75 75 76 76 77 77 76 76 76 76 76 76 76 75 75 74

ECMWFFLT2_250_spd_027.txt.gz
Wind_Speed
53 53 54 53 49 47 47 44 40 39 37 35 34 33 33 32 32 32 32 34 38 41 43 44 43 43 42 41 41 39 37 37 35 31 30 29 28 24 21 24 28 27 28 31 36 38 39 42 43 42 41 39 38 37 34 32 31 31 29 26 23 22 22
53 54 55 53 50 48 46 44 42 41 37 34 33 31 29 30 31 31 32 32 35 39 41 42 43 43 42 43 44 41 39 40 37 35 34 31 30 26 23 26 27 26 27 31 35 39 41 44 44 43 42 40 38 36 33 31 31 30 28 25 24 23 23
57 58 58 54 51 47 45 45 43 38 34 33 32 30 30 33 34 33 33 31 32 36 37 38 42 43 44 46 45 43 42 41 39 38 37 33 31 28 25 26 27 27 28 31 35 39 42 43 44 43 42 41 39 36 33 32 32 30 28 27 26 25 24
62 62 59 53 49 48 46 45 41 35 35 36 34 34 35 35 36 35 34 32 33 35 34 34 38 41 42 46 47 45 44 44 42 40 38 35 32 29 26 24 25 28 29 30 33 38 41 43 43 43 42 41 39 37 35 34 33 32 31 30 28 27 25
66 61 56 52 50 51 49 46 42 39 38 38 37 38 38 37 39 38 37 36 33 33 33 33 35 38 40 43 47 47 47 47 45 42 40 37 33 31 27 25 26 29 30 30 32 36 39 40 40 41 41 41 40 38 37 37 36 35 35 34 31 29 27
66 60 57 57 56 56 54 51 48 46 45 44 43 42 41 43 43 42 42 37 27 26 32 32 32 35 38 42 46 48 48 49 48 45 42 39 36 32 28 26 26 28 29 30 31 34 37 37 37 39 40 40 40 40 40 39 38 38 37 35 33 31 30
69 65 63 63 61 60 60 55 53 53 51 50 49 47 46 47 46 46 45 39 29 27 30 30 30 33 37 42 46 48 49 51 50 48 46 43 39 35 31 29 27 25 27 30 31 33 37 37 36 37 38 40 41 41 41 40 39 39 38 36 34 32 31
72 72 68 66 64 63 61 56 55 55 53 52 52 50 49 48 48 48 45 40 36 32 29 27 28 31 36 41 46 49 50 52 53 52 49 46 42 39 35 33 32 28 27 31 33 35 37 38 37 37 37 39 40 41 41 40 40 39 37 36 34 33 33
74 75 70 66 64 61 59 57 56 55 54 54 53 51 49 49 49 48 44 40 36 32 29 28 29 31 35 40 45 48 50 53 55 54 51 48 46 44 40 39 38 34 31 32 35 37 38 39 39 38 38 38 39 39 39 39 39 38 36 35 34 34 34
73 75 71 66 64 61 60 59 57 57 56 55 53 50 49 48 47 46 44 40 36 34 33 31 30 33 36 39 42 45 49 53 54 53 52 51 50 47 45 43 42 39 36 35 37 40 42 42 41 40 40 39 39 39 39 39 38 37 36 36 36 35 35
75 78 76 70 66 64 63 62 61 59 58 56 54 51 49 48 46 45 46 43 40 39 37 34 33 35 36 38 41 43 47 51 52 53 54 54 52 49 48 46 43 41 40 38 39 41 43 44 44 44 43 43 42 41 41 40 40 39 38 38 37 37 36
79 80 78 70 66 66 66 66 65 62 60 58 56 52 50 49 47 46 47 46 43 44 42 37 36 36 36 38 40 42 45 49 52 54 55 55 54 52 50 48 45 44 42 40 39 40 42 44 45 46 45 45 44 44 43 42 41 41 40 39 39 39 38
82 79 78 72 69 69 69 68 67 65 63 60 57 54 53 51 49 48 49 48 48 48 45 40 38 39 39 39 39 40 43 47 51 54 55 56 56 53 50 48 47 45 44 42 40 38 39 41 43 44 45 44 44 44 43 42 42 41 40 39 40 39 38
84 80 79 77 73 72 71 71 69 68 65 62 59 58 56 54 52 51 50 49 51 51 48 43 40 39 39 38 38 39 40 45 49 53 55 57 57 54 50 49 49 48 45 42 40 39 39 40 41 43 43 44 44 43 42 42 42 41 41 41 41 40 39
84 79 78 78 76 75 76 74 72 70 66 62 61 60 59 57 55 52 50 51 54 55 51 45 41 40 40 41 41 40 41 43 47 51 54 56 56 55 54 52 52 50 48 45 43 42 42 41 41 42 43 43 44 44 44 44 43 43 43 42 42 42 41
84 80 80 80 79 79 78 76 74 71 67 64 64 64 62 59 57 54 53 53 56 59 56 50 46 45 43 43 42 41 41 41 43 46 51 54 55 56 57 56 55 53 51 49 47 47 46 45 45 44 43 44 44 45 45 45 44 44 44 44 43 43 42
86 86 84 83 83 82 78 75 74 72 69 67 67 67 64 62 60 57 57 58 60 62 61 55 50 46 43 41 40 40 39 39 40 43 47 52 54 55 56 57 57 55 54 51 50 50 49 48 48 47 46 46 46 46 45 44 44 44 44 44 43 43 43
90 90 87 86 86 81 77 76 76 74 72 70 70 69 67 64 61 61 62 62 61 63 63 56 49 46 44 41 39 39 39 40 41 42 45 49 52 55 56 57 57 56 55 54 53 52 51 50 49 49 48 48 47 46 45 45 45 45 44 44 44 44 44
93 92 88 88 85 79 79 81 80 77 74 72 73 72 70 67 65 66 66 63 62 64 63 56 50 48 46 42 40 41 42 41 42 42 44 47 50 53 55 56 56 56 56 56 55 53 53 52 51 50 50 49 48 47 47 47 47 46 46 46 46 46 46
96 93 89 88 85 82 84 84 80 77 75 74 74 73 71 70 70 69 68 66 65 64 62 57 54 51 49 46 45 45 44 43 43 42 43 44 45 48 52 54 55 56 56 56 55 55 54 54 53 52 51 50 49 49 49 49 49 48 48 48 48 48 49
96 92 89 88 86 86 87 84 80 78 78 76 76 75 74 73 72 70 68 67 64 62 60 60 58 56 52 49 47 47 45 42 42 41 39 39 40 42 46 50 52 54 55 56 56 55 55 55 55 54 53 52 51 51 50 51 50 50 50 50 50 51 51
96 92 89 90 89 88 88 87 83 82 81 80 79 78 77 76 74 71 70 69 66 64 64 63 61 58 55 51 50 48 45 41 40 39 38 38 39 40 42 44 47 49 52 54 55 55 55 55 55 55 54 53 52 52 52 52 52 52 52 53 53 53 53
96 93 90 90 91 90 90 90 88 86 85 83 81 80 80 79 76 74 74 72 69 67 64 62 60 61 59 56 52 47 45 44 42 40 39 39 39 39 39 39 41 43 46 48 49 50 51 52 52 52 52 52 51 51 51 51 51 52 53 53 53 53 53
96 93 91 91 93 94 93 91 90 89 87 84 82 82 82 81 79 78 77 75 71 68 65 62 62 63 63 59 52 47 48 49 46 42 41 40 39 38 38 38 39 40 40 40 41 41 42 42 42 43 43 43 44 44 44 44 45 45 45 45 45 46 46
97 95 92 92 94 96 95 92 91 91 89 86 85 85 84 83 82 81 79 76 72 69 66 64 63 63 64 61 55 51 52 52 48 46 44 42 40 39 38 39 40 39 38 38 36 35 35 34 33 32 32 33 34 34 35 36 36 36 36 36 37 38 38
98 97 95 94 96 98 98 95 93 92 91 89 88 87 86 85 84 83 81 78 74 70 68 66 64 63 63 62 59 55 54 52 51 50 48 45 44 42 41 41 41 40 40 39 37 36 34 32 31 30 31 31 31 32 33 33 33 33 33 34 34 35 36
99 99 98 97 99 100 99 97 94 93 92 92 89 88 87 86 85 84 82 79 75 72 69 67 65 64 63 63 61 58 56 55 55 54 52 49 48 46 45 44 44 43 42 41 40 38 36 34 34 33 33 33 34 34 35 35 35 35 35 35 36 36 37
102 101 101 101 100 98 96 96 94 91 91 91 89 88 88 87 85 84 83 80 78 75 72 70 68 66 64 64 63 61 59 59 58 56 55 53 52 51 49 48 47 46 45 43 42 41 39 39 38 37 36 37 37 37 38 39 38 38 38 38 39 39 39
102 101 100 100 98 94 93 95 93 90 90 91 91 90 90 88 87 86 85 83 80 77 74 71 70 68 66 64 64 64 63 62 60 59 58 56 55 54 53 51 50 48 46 45 45 44 44 43 42 41 40 40 40 40 41 41 40 40 41 41 41 41 41
100 99 99 98 95 92 91 93 92 90 91 93 93 92 91 89 88 87 86 85 83 80 76 74 72 70 68 66 66 66 66 65 63 62 61 59 57 56 55 55 53 51 49 49 48 48 48 47 46 45 45 44 44 44 44 43 43 43 43 43 44 44 44
98 99 99 98 96 93 90 90 91 92 94 96 95 93 92 90 89 89 88 87 85 82 79 77 75 73 71 69 68 68 68 68 67 66 64 63 61 59 58 58 57 55 53 53 53 52 52 51 50 50 49 48 48 47 47 47 46 46 46 46 46 47 47
96 97 97 95 93 90 88 88 92 95 96 96 95 94 93 92 92 91 90 89 87 85 82 79 78 76 74 72 71 70 70 70 70 69 67 66 65 63 61 61 61 59 57 56 55 55 55 54 54 53 52 52 51 51 50 50 50 49 50 50 50 50 50
93 94 95 94 90 88 88 91 95 97 97 95 95 95 94 94 94 93 92 91 90 88 85 81 80 79 77 76 74 73 72 72 72 72 71 69 68 66 65 64 64 63 61 59 57 57 57 57 57 56 55 55 54 54 54 53 53 53 53 53 53 53 53
90 91 93 93 91 90 92 94 96 95 93 93 95 96 95 95 95 94 93 93 91 90 87 84 82 81 80 79 77 76 75 75 74 74 73 72 70 69 68 68 67 66 64 62 60 59 59 59 59 58 58 57 56 56 56 56 56 56 56 56 56 56 56
89 89 91 92 90 90 91 93 93 91 91 92 95 97 97 97 97 96 95 94 93 92 90 87 84 83 82 81 80 79 78 78 77 76 75 75 73 72 71 71 70 69 68 66 64 63 62 61 61 61 60 60 59 59 59 59 59 59 60 60 60 60 60
88 89 90 91 91 90 92 94 94 93 94 95 97 99 99 99 99 98 97 96 95 94 93 90 88 86 84 83 82 82 81 80 79 78 78 77 77 76 75 74 73 73 71 70 69 67 66 64 64 64 63 63 63 62 62 63 63 63 63 63 63 63 63
91 90 90 91 91 91 93 94 94 94 95 96 97 99 100 101 100 100 98 97 97 96 94 93 91 89 87 86 85 84 83 82 81 80 80 80 79 79 78 77 76 75 75 74 72 71 69 68 67 67 66 66 66 66 66 66 66 66 66 65 65 65 66

ECMWFFLT2_250_spd_030.txt.gz
Wind_Speed
63 61 60 60 58 57 59 56 52 52 54 52 49 49 51 51 49 48 45 43 44 44 43 44 42 42 44 45 46 45 41 40 38 37 37 36 32 29 28 27 24 23 23 24 25 26 27 29 30 34 38 39 39 39 38 36 35 33 31 29 27 26 24
64 63 63 62 60 59 59 55 53 57 56 49 48 49 48 47 45 46 45 44 45 44 43 44 44 43 42 42 44 43 41 41 40 38 39 38 36 32 30 30 26 24 24 25 26 29 31 32 31 32 36 39 40 41 40 39 37 36 34 32 30 29 27
67 67 67 64 59 58 57 55 57 57 51 46 47 48 45 44 44 44 44 44 43 41 41 44 45 44 43 43 43 42 42 43 42 41 40 41 38 34 33 32 28 26 26 26 28 30 32 33 32 31 35 40 42 42 42 41 40 38 36 35 33 31 29
70 70 67 61 57 57 56 56 57 53 47 46 47 47 46 45 45 44 45 44 42 39 40 42 41 41 43 45 44 43 45 45 45 44 43 43 40 36 35 33 30 28 27 27 27 28 29 32 34 33 35 41 44 44 45 44 42 40 39 38 36 34 31
72 67 62 57 56 57 56 56 55 51 47 46 46 46 46 45 45 45 44 43 41 39 38 37 36 37 41 43 43 45 47 48 49 47 46 45 42 39 37 35 32 30 27 25 25 25 25 28 33 34 35 42 46 46 46 46 44 42 40 39 38 36 34
68 62 60 59 59 59 58 58 57 53 50 48 46 45 45 44 44 44 43 42 41 37 34 34 35 37 40 40 40 44 48 50 51 50 48 47 44 41 39 37 35 31 28 26 25 26 27 27 31 35 36 42 48 48 47 47 44 42 40 39 39 38 38
66 63 64 64 63 62 62 61 59 55 53 51 47 47 47 46 46 46 44 44 41 36 35 35 33 34 37 38 40 43 47 50 51 50 50 48 45 43 41 38 36 33 30 28 27 28 29 27 29 33 36 42 48 48 47 46 45 43 41 40 40 39 38
69 67 68 68 66 65 63 61 59 55 54 52 51 51 51 49 49 49 47 47 43 37 35 33 31 32 36 37 39 41 45 49 50 51 51 49 47 46 43 38 37 35 32 30 29 29 30 29 29 32 36 41 46 47 46 46 45 43 42 41 40 39 38
74 70 69 68 65 62 60 60 59 55 55 55 54 54 53 52 52 50 50 50 45 39 36 31 28 32 36 37 38 39 43 48 50 50 51 50 49 48 45 41 40 38 35 33 31 29 30 30 30 33 37 41 45 47 47 46 45 43 42 41 40 39 38
77 70 68 67 64 61 60 61 60 58 58 57 56 55 54 53 53 51 52 51 43 40 40 32 27 30 34 36 38 38 41 45 46 47 49 51 50 49 47 45 44 42 40 37 32 29 31 32 33 36 40 43 46 46 47 46 45 44 43 41 40 39 38
79 74 72 72 69 66 64 64 63 61 60 59 58 57 55 54 54 54 55 52 43 42 42 34 31 33 35 36 37 37 38 41 42 46 50 53 52 52 51 49 47 46 44 39 35 32 33 35 37 39 42 45 46 46 46 46 46 45 43 42 40 39 38
82 78 76 75 73 68 66 66 65 64 63 62 60 57 56 57 57 57 58 53 45 44 42 36 36 38 38 38 37 36 37 39 41 46 51 54 54 53 52 49 48 48 45 41 38 35 33 35 37 40 43 45 46 46 46 47 47 46 45 43 42 41 40
84 81 78 77 74 70 67 67 67 67 66 65 63 61 60 60 59 60 60 55 49 46 44 42 43 42 40 39 38 36 37 38 41 45 50 52 53 53 52 50 49 49 45 42 41 38 35 35 37 40 43 45 46 47 46 47 48 47 46 45 44 43 42
88 84 80 77 75 73 71 69 70 69 68 66 66 65 64 63 62 62 61 58 53 51 51 49 47 44 42 40 38 37 38 39 41 44 48 52 53 54 52 51 51 49 47 45 43 39 36 36 37 40 43 45 47 47 47 47 47 47 46 46 45 45 44
88 85 81 79 77 76 74 70 69 69 68 68 69 69 67 66 65 64 63 61 58 55 55 51 46 43 42 39 38 40 41 41 42 44 47 51 52 52 52 52 53 51 48 48 46 41 37 36 38 40 43 45 46 47 47 47 46 46 46 46 45 45 45
87 85 82 81 79 77 74 72 70 70 70 70 71 70 69 69 68 67 66 63 60 59 57 52 46 44 42 41 42 44 44 43 43 43 44 47 49 52 54 55 55 55 53 53 51 45 40 39 40 41 43 45 46 47 47 47 47 47 47 46 46 45 45
87 85 83 82 81 79 77 74 72 71 71 73 74 73 72 71 70 68 66 64 64 63 57 51 47 45 46 47 47 45 43 41 40 41 42 44 48 52 55 57 58 59 57 55 54 50 47 45 44 43 43 44 45 46 47 47 48 48 47 47 46 45 45
88 87 87 87 85 83 81 78 75 75 76 77 78 76 74 73 72 71 69 68 68 63 56 52 52 51 51 50 47 44 42 40 40 41 42 43 45 50 55 58 59 59 57 56 56 55 52 50 48 46 45 45 45 46 47 48 49 48 48 47 47 46 46
91 91 92 91 86 82 81 79 79 78 77 76 79 79 78 79 79 78 74 71 69 64 58 57 58 56 53 49 45 43 43 42 42 42 42 42 44 48 53 56 57 57 58 57 58 57 55 53 51 49 48 47 46 46 47 48 49 49 48 48 47 47 46
93 94 95 91 85 83 83 81 80 80 79 79 83 84 83 82 81 77 73 69 66 61 58 60 62 59 54 49 46 45 46 46 45 43 42 42 42 44 47 51 55 58 59 58 56 55 55 55 54 52 50 49 48 48 47 47 48 48 48 47 47 47 46
94 96 95 89 86 87 86 82 83 84 83 84 86 85 84 83 79 75 71 69 67 64 65 68 66 61 56 51 50 51 50 48 44 41 38 38 37 38 42 48 54 58 59 60 59 57 55 54 54 55 53 51 50 49 48 48 48 47 47 48 48 47 47
97 97 95 92 91 90 85 83 86 88 86 86 86 84 84 84 80 76 75 75 73 71 71 69 63 57 54 53 55 55 51 45 42 39 38 38 37 38 42 46 50 53 57 60 60 60 58 55 54 54 54 53 52 51 51 50 49 49 48 49 49 48 48
97 96 96 95 93 90 87 88 92 91 87 87 85 83 86 87 83 81 81 79 76 72 69 64 58 55 57 60 61 56 49 44 42 41 41 39 39 40 42 43 44 48 53 56 58 60 61 59 57 56 54 54 53 53 53 52 51 51 50 50 49 49 49
96 96 97 97 95 94 93 94 95 93 89 89 88 87 89 88 83 82 81 77 74 71 67 64 61 61 63 66 62 52 46 44 44 44 43 41 40 42 42 41 42 44 46 50 54 57 59 60 60 58 57 56 55 55 54 54 53 53 52 51 50 50 50
98 97 98 100 99 98 98 98 98 95 92 92 93 91 90 87 83 82 81 77 73 70 66 65 66 66 67 66 59 51 48 48 48 49 47 44 43 44 42 42 43 42 41 44 48 51 54 57 57 57 57 57 57 56 56 55 55 54 53 52 52 51 51
99 98 100 102 101 100 100 100 98 94 92 93 93 90 87 85 83 82 82 78 74 71 69 70 69 67 67 66 61 57 55 52 51 52 50 46 45 45 44 43 43 41 41 42 43 45 48 50 51 53 54 55 55 55 55 55 55 54 53 53 53 52 52
100 100 101 103 102 101 100 100 97 95 93 93 92 89 86 84 82 81 82 79 74 72 72 71 70 68 67 67 64 61 58 55 53 52 50 48 46 46 45 44 44 43 42 41 41 41 43 44 45 47 49 50 51 51 51 51 51 51 51 51 50 50 49
102 102 103 103 102 100 99 99 97 95 94 93 93 91 88 86 83 82 82 79 76 74 73 72 70 69 67 66 66 65 62 58 55 53 51 50 49 47 46 46 45 45 43 41 41 41 41 42 43 43 44 45 45 45 45 46 46 45 45 44 43 41 40
103 104 104 103 101 100 99 97 94 93 93 93 92 91 89 85 83 83 82 80 78 77 75 73 72 71 68 68 68 67 65 62 59 56 54 52 51 49 48 47 46 46 44 43 44 43 43 43 43 42 42 42 41 42 42 42 41 40 39 37 37 36 36
102 103 103 102 101 101 98 94 92 92 92 92 92 91 89 86 84 83 83 82 80 78 76 75 74 72 70 69 69 68 67 65 62 60 57 55 53 52 51 50 49 48 46 46 46 45 45 44 43 43 43 42 41 41 41 40 38 37 36 37 37 37 37
102 103 103 102 101 101 98 93 92 93 92 91 91 91 90 89 86 84 84 83 82 79 77 76 75 73 72 71 70 69 68 67 66 64 61 58 56 55 54 54 54 51 48 48 48 47 47 46 45 45 44 43 43 42 41 40 39 38 38 39 39 39 40
101 102 102 101 100 100 97 93 91 91 90 89 89 90 91 91 88 85 84 84 83 81 79 78 77 75 74 73 72 70 69 69 68 67 65 61 59 57 56 57 57 55 52 51 51 50 49 49 48 47 46 45 44 43 43 42 41 41 41 41 42 42 42
99 99 100 99 98 97 95 91 91 91 89 87 86 89 91 92 89 87 86 85 84 83 81 80 78 77 75 74 73 72 71 70 70 70 68 65 62 60 58 59 60 59 57 55 54 54 53 51 50 50 49 49 47 46 45 45 45 44 44 44 44 44 44
100 98 98 98 97 96 94 92 92 91 89 86 87 89 91 92 90 88 88 87 86 85 84 82 80 78 77 75 74 73 72 72 72 72 71 69 66 64 62 61 62 62 61 59 58 57 56 54 52 52 52 52 51 50 49 49 49 48 48 47 47 46 46
100 98 97 96 95 93 91 90 89 88 87 87 88 88 89 90 90 89 88 88 87 86 85 83 81 79 78 76 75 74 74 73 73 73 73 72 70 68 66 65 64 64 63 62 61 60 59 57 56 55 55 54 54 54 53 53 52 51 51 51 50 50 50
100 99 97 95 92 90 88 87 86 85 85 85 86 86 87 89 90 90 89 88 88 87 86 85 83 81 79 78 77 76 75 74 74 74 74 74 73 72 70 69 67 66 65 64 64 63 62 61 59 58 57 57 57 57 56 56 56 55 55 55 54 54 54
101 99 97 94 90 87 86 86 86 85 85 85 87 89 90 90 91 91 90 89 89 88 87 86 85 83 81 79 78 77 77 76 76 75 75 75 75 74 73 72 70 69 68 67 66 66 65 64 63 62 62 61 61 60 60 60 60 59 59 58 57 57 58

ECMWFFLT2_250_spd_033.txt.gz
Wind_Speed
72 71 70 69 68 65 64 63 58 56 59 60 60 60 60 58 54 51 50 50 51 51 50 47 45 43 41 40 40 38 35 34 36 37 37 37 40 40 37 35 33 28 26 23 20 21 23 27 27 26 26 27 28 30 31 34 35 35 34 32 30 29 29
73 73 72 71 69 66 64 61 58 60 64 62 60 60 59 55 50 49 50 52 51 49 47 47 46 44 41 39 39 38 36 35 36 38 39 41 43 43 40 38 34 30 27 26 24 23 25 28 27 26 26 26 27 30 33 35 37 37 36 35 33 32 32
75 76 75 72 68 65 62 61 62 65 64 60 58 58 56 52 49 50 51 52 49 46 47 47 45 44 43 42 41 40 39 38 36 38 41 44 46 46 43 40 36 33 31 30 28 25 25 27 27 26 26 27 27 29 34 37 38 39 39 37 35 34 34
79 80 76 70 65 62 62 62 64 64 62 59 58 57 55 52 50 51 52 50 48 47 48 47 45 44 44 42 41 41 42 40 38 40 44 46 48 48 47 43 40 37 34 31 28 25 23 24 26 27 28 28 27 29 34 38 39 41 41 40 39 38 36
83 80 72 65 63 63 62 62 62 62 60 57 56 56 53 51 50 51 51 49 49 49 48 46 45 45 43 41 39 41 44 42 40 44 47 47 49 51 51 47 43 41 36 31 28 26 24 24 27 30 31 31 29 30 35 39 41 43 44 42 41 40 37
83 76 68 66 67 67 65 63 62 63 61 57 56 55 52 50 51 51 50 50 51 50 47 45 45 43 40 39 38 41 45 44 43 47 49 47 48 52 53 48 45 43 38 34 31 29 28 28 29 32 34 35 33 32 35 40 43 45 45 44 43 41 38
81 76 73 72 73 72 70 67 65 65 63 59 56 55 53 53 53 52 52 53 52 49 45 44 42 40 39 40 40 41 45 45 44 48 51 48 47 51 52 49 46 44 41 39 35 32 30 28 27 30 34 37 36 34 35 41 44 46 46 46 45 42 39
82 81 79 76 77 76 72 68 66 64 62 59 57 57 57 56 55 54 54 54 52 48 44 42 39 39 42 43 42 43 46 46 44 46 50 49 48 50 50 49 47 44 43 42 38 33 31 28 27 28 31 35 37 36 37 40 45 47 48 48 46 44 40
85 84 81 78 78 77 70 64 63 62 62 61 60 59 59 56 55 56 55 54 52 48 45 43 40 42 44 42 41 42 44 44 42 44 48 49 49 49 49 51 49 45 44 43 39 35 32 29 27 27 29 32 36 38 39 40 44 48 49 49 48 45 42
84 83 81 76 73 72 67 63 63 64 64 64 62 59 58 56 55 56 56 55 52 48 46 45 44 45 43 40 40 40 41 41 40 42 47 49 49 49 51 53 52 47 45 44 41 38 35 32 29 28 28 31 35 40 41 41 44 48 50 50 50 47 45
83 81 79 73 70 71 69 65 64 66 65 65 63 61 58 57 57 57 57 56 52 48 48 47 46 44 40 38 38 38 38 40 41 43 46 49 49 50 53 55 53 50 49 46 43 41 38 35 32 30 30 33 36 41 44 44 45 48 51 51 50 49 48
85 81 79 75 72 73 72 68 66 66 66 65 64 61 58 59 59 57 58 56 52 49 50 49 47 42 38 38 38 37 38 41 42 42 46 48 48 49 53 55 55 53 51 48 45 44 41 38 35 32 33 36 38 41 45 47 45 47 50 51 51 50 49
87 85 83 78 74 73 73 70 67 66 66 65 63 62 61 61 59 58 58 57 53 52 52 51 48 43 38 37 36 36 39 42 42 42 44 46 47 49 53 56 56 54 52 49 48 46 43 40 38 35 35 38 39 41 45 47 46 46 49 51 51 51 50
89 88 85 80 76 74 74 72 67 65 66 65 63 64 64 63 61 59 59 58 57 56 55 53 49 42 38 38 37 37 39 41 42 42 43 45 47 49 52 54 53 52 51 51 50 47 44 42 40 38 37 37 39 40 43 47 47 46 48 51 52 52 51
88 87 86 84 79 75 73 72 67 63 63 65 65 65 66 65 63 61 60 62 61 57 54 53 49 42 41 42 41 40 41 41 41 40 41 43 45 46 50 52 51 50 51 51 50 49 46 44 42 40 38 36 37 39 42 45 47 48 48 50 52 52 52
85 84 85 83 77 73 72 70 66 63 63 65 67 66 66 67 66 63 63 64 63 56 54 55 51 46 45 45 43 44 45 44 41 39 40 42 43 44 47 51 52 52 53 53 52 50 49 46 43 41 39 36 35 37 41 44 46 48 49 50 51 51 51
83 82 82 81 78 76 73 70 69 68 68 70 70 69 69 70 69 67 65 65 64 60 58 58 55 50 48 47 47 48 48 46 43 41 40 40 41 41 44 48 52 53 53 54 53 52 51 49 46 43 41 39 36 36 39 42 46 48 49 50 50 51 51
83 81 81 83 81 76 73 72 74 76 75 76 75 74 73 72 71 71 69 67 67 65 62 60 55 51 50 50 50 50 49 46 44 41 39 37 37 38 40 44 48 51 52 54 53 52 51 50 49 46 44 42 40 38 38 41 44 47 49 49 50 50 50
83 80 81 83 78 73 73 77 79 80 78 77 76 76 76 76 75 75 72 69 68 67 66 62 56 52 52 52 51 51 49 46 43 40 38 36 35 36 38 40 44 46 50 53 53 53 52 50 50 48 46 44 42 39 39 40 42 45 48 49 50 50 50
83 81 82 83 78 76 80 83 83 82 79 76 77 78 79 79 79 78 76 74 72 71 69 66 60 55 54 53 52 50 48 47 44 40 37 35 35 35 36 38 40 43 48 52 54 54 53 51 50 49 47 44 42 39 38 38 39 41 45 48 50 50 50
86 85 86 86 83 83 85 86 86 86 83 81 82 83 82 81 81 82 80 75 74 76 74 67 61 57 56 54 52 51 50 48 44 38 35 35 35 35 36 37 39 42 46 50 53 54 54 52 51 50 49 47 45 42 39 37 37 38 41 45 48 49 49
88 88 89 89 87 86 85 84 87 88 87 86 86 85 85 84 84 86 84 75 72 74 74 67 61 58 57 55 53 53 51 47 42 37 35 36 37 37 37 38 39 40 43 46 49 52 53 53 53 53 52 51 49 47 45 41 39 39 40 42 45 47 48
90 90 91 91 89 88 86 85 87 89 89 88 86 85 86 87 87 88 87 83 78 74 70 66 61 57 55 54 53 53 51 47 43 39 38 38 38 38 38 38 38 38 40 43 46 50 53 54 55 54 54 53 51 50 49 46 44 43 42 42 42 43 45
92 92 93 93 91 89 88 87 89 90 89 88 88 87 88 90 90 89 87 84 81 74 67 62 58 55 53 52 51 52 51 48 45 42 40 39 39 39 39 39 38 37 38 41 44 47 52 54 55 55 54 54 53 51 51 49 47 47 46 45 43 43 43
94 94 96 96 93 91 90 89 90 91 90 90 91 91 90 91 91 90 86 81 76 71 66 61 55 53 52 51 52 53 52 50 47 44 42 41 41 40 41 40 39 37 37 39 41 44 48 52 54 55 55 54 54 53 53 52 51 51 49 48 47 46 45
95 96 98 97 95 93 92 92 92 93 92 92 94 93 92 93 92 88 84 78 73 70 67 63 58 55 54 56 57 57 55 53 51 49 46 45 44 43 42 42 41 38 37 38 40 42 45 48 52 54 55 55 55 54 53 52 52 52 52 51 51 49 48
97 98 99 99 97 95 96 96 97 97 95 93 95 96 95 94 91 86 82 77 73 70 68 65 62 61 60 61 63 63 61 58 56 54 52 50 47 45 44 44 42 40 38 38 38 39 42 44 47 50 52 54 55 54 53 53 52 51 50 51 52 51 51
100 101 102 102 99 98 99 101 101 101 98 94 92 94 96 95 90 84 79 77 74 71 68 67 67 67 67 68 68 68 65 62 59 57 55 53 50 47 46 45 45 42 39 38 38 38 40 41 42 44 46 49 51 53 54 55 54 53 52 51 51 51 50
102 102 103 103 101 100 102 102 102 101 100 96 91 89 91 94 91 84 79 76 74 72 70 70 70 71 72 73 72 71 69 65 61 59 57 54 52 50 48 48 47 44 41 40 40 39 39 39 39 39 41 43 45 48 50 52 53 54 54 53 53 52 52
102 102 102 102 102 102 102 102 101 100 100 99 96 92 89 89 89 85 80 77 76 74 73 73 73 73 73 74 73 72 71 68 64 60 58 56 54 52 50 50 50 47 45 43 43 42 41 41 40 39 39 39 40 42 44 46 49 50 51 52 53 54 53
103 103 103 103 103 103 102 101 100 100 101 102 102 100 95 90 87 83 80 79 78 77 76 76 76 76 76 75 74 73 72 69 66 62 60 58 57 55 53 52 52 51 49 47 46 45 44 44 42 41 40 40 39 40 40 41 43 45 46 48 50 51 52
106 106 105 104 103 102 101 100 100 102 104 104 104 103 100 95 90 86 81 79 79 79 79 78 78 78 78 76 74 74 73 70 67 64 62 60 59 57 56 54 54 54 53 51 50 49 47 46 45 44 42 42 41 40 40 40 40 41 42 43 45 47 48
108 107 107 106 105 102 101 100 102 103 104 102 102 101 98 95 91 88 83 80 80 80 80 79 79 79 79 78 76 75 74 72 70 67 65 63 61 60 59 57 56 55 54 54 54 52 50 48 47 46 45 44 43 42 42 41 41 41 41 42 43 44 45
109 108 109 108 107 104 103 102 103 103 101 99 98 97 95 91 89 86 83 81 80 80 80 80 79 79 79 79 77 76 75 74 72 70 67 66 64 63 61 60 59 57 56 55 56 55 52 50 50 49 48 46 46 45 45 44 44 43 43 43 43 43 44
109 108 108 107 105 103 102 102 102 102 99 96 95 94 91 89 88 86 84 83 82 82 82 81 80 79 79 78 78 78 77 75 73 72 70 68 67 65 64 63 62 60 58 57 57 56 54 52 52 51 51 49 49 49 49 48 48 47 46 45 44 44 44
109 108 107 106 103 101 99 98 99 98 95 92 92 90 89 88 88 87 87 87 86 84 83 81 81 81 80 79 79 79 78 76 75 73 72 70 69 68 66 66 65 63 61 60 58 57 56 55 53 53 53 52 51 51 52 52 51 50 48 46 45 46 46
108 108 107 105 102 99 97 96 95 93 91 89 88 88 88 88 89 90 90 90 88 86 83 82 81 80 80 80 79 79 79 78 76 75 73 72 71 70 69 68 67 66 64 63 61 60 59 58 56 55 55 55 54 55 56 56 54 52 50 47 47 48 48

ECMWFFLT2_250_spd_036.txt.gz
Wind_Speed
87 83 82 81 80 77 76 75 69 64 64 66 66 64 63 63 60 57 55 52 52 54 55 53 51 47 42 39 36 35 35 35 35 38 38 32 30 31 34 35 34 34 34 31 29 26 24 26 28 28 29 28 26 25 26 30 32 32 33 32 31 29 28
88 86 86 85 82 80 78 74 68 68 71 71 68 66 65 62 58 56 56 55 54 54 53 52 51 47 43 39 37 36 36 34 33 36 39 34 31 33 35 36 35 36 36 33 31 29 26 26 28 30 30 30 28 28 28 31 34 35 35 34 33 32 31
88 88 90 88 84 81 78 74 72 75 74 70 67 65 63 60 58 58 59 57 55 54 54 54 52 48 44 41 39 38 36 35 34 36 40 38 34 34 36 36 36 38 38 36 34 32 28 27 29 31 33 33 32 30 30 33 36 36 36 35 35 33 33
90 92 93 88 82 79 78 77 77 76 73 70 68 66 64 63 62 61 61 59 55 55 56 56 52 48 45 42 40 39 37 36 36 38 43 42 37 36 38 37 38 40 41 39 36 34 31 29 29 31 33 36 35 33 33 34 36 37 38 37 37 36 35
94 96 92 84 79 78 78 77 76 75 73 72 70 67 65 65 64 62 61 58 56 58 59 56 52 48 46 42 40 39 38 38 38 39 45 46 41 40 41 39 39 41 43 42 39 36 34 32 30 31 33 36 37 35 34 34 36 39 40 39 39 37 36
95 93 87 82 79 79 79 77 75 74 73 72 70 66 63 63 61 61 60 57 58 60 59 55 51 48 46 43 40 39 38 38 39 41 46 48 44 42 43 41 40 41 43 44 41 38 37 34 31 30 33 36 37 36 35 35 37 39 41 41 40 38 37
92 88 84 83 82 82 82 81 79 77 76 74 69 63 61 62 62 61 59 56 57 59 56 53 50 48 46 44 41 40 39 39 41 44 47 48 46 43 44 42 40 41 42 44 44 41 38 36 32 30 32 36 37 36 36 36 37 39 41 42 41 39 38
89 86 85 86 85 86 86 84 81 79 76 73 67 64 65 67 65 63 59 57 58 58 54 53 51 48 46 45 42 42 41 40 42 45 47 48 47 44 43 42 39 39 40 43 45 44 40 37 35 32 32 35 37 38 37 38 38 39 41 42 42 41 40
92 89 88 88 88 88 87 83 79 76 73 71 68 67 69 68 65 62 58 57 59 58 55 54 52 49 47 46 45 44 43 42 43 45 46 47 47 44 41 40 39 39 40 44 47 46 43 40 37 35 33 34 37 39 39 39 39 40 42 43 43 43 42
94 91 89 88 88 86 83 79 75 72 71 70 68 68 68 65 62 60 56 57 59 57 54 54 52 48 48 48 47 45 44 43 42 43 44 45 46 43 39 39 41 41 43 47 48 47 45 43 40 37 35 33 35 38 40 40 40 41 42 44 45 44 44
93 91 88 87 86 84 79 76 73 71 71 71 70 68 65 62 61 59 56 57 59 56 53 53 50 48 49 49 46 44 44 43 42 43 44 46 46 43 39 40 42 45 46 47 47 48 46 44 41 39 36 35 35 37 40 41 42 42 43 44 46 46 45
92 90 89 87 85 82 78 75 73 72 72 72 70 66 63 63 62 59 57 60 60 56 53 52 49 49 51 48 44 44 45 43 43 43 44 44 43 42 40 39 41 46 48 47 46 48 47 46 43 40 38 36 35 36 40 43 44 44 43 44 46 47 47
92 91 89 87 84 80 78 77 74 73 73 71 69 65 64 65 63 60 61 62 60 57 54 51 49 50 52 48 44 45 45 42 41 41 41 42 41 42 41 40 41 46 49 48 48 48 48 46 45 42 40 39 37 36 38 42 45 45 45 45 47 48 49
93 92 91 88 85 81 80 78 76 75 74 71 69 68 67 66 64 65 65 64 63 59 54 50 51 52 51 47 45 45 43 40 40 40 41 42 42 42 41 40 41 45 48 49 49 49 49 47 46 45 44 42 40 37 37 40 44 46 47 47 48 49 50
93 93 92 90 86 82 80 80 79 78 76 73 72 72 71 69 69 69 68 66 64 60 54 52 53 53 51 47 46 45 42 40 40 41 42 42 41 40 40 40 41 42 45 47 48 50 50 50 48 47 45 44 42 39 37 38 41 45 48 49 49 50 50
93 93 92 90 86 81 80 82 83 82 79 76 75 75 75 74 73 72 70 68 66 61 57 54 54 53 51 48 47 46 44 42 42 41 41 42 41 39 39 40 41 42 44 46 49 51 52 51 49 47 46 45 43 41 40 38 39 42 47 49 50 50 51
93 92 90 90 87 83 83 85 87 85 82 78 78 79 79 78 75 73 71 70 67 64 61 57 54 53 51 49 49 48 46 44 42 41 40 41 40 38 38 39 41 42 45 47 50 52 53 52 51 50 47 46 44 43 42 39 38 38 42 45 47 49 51
92 90 88 90 88 86 87 89 89 86 82 80 80 79 77 76 74 73 73 72 70 67 63 58 55 53 52 50 49 48 46 44 42 40 40 40 40 38 36 38 40 41 44 47 50 52 54 55 55 53 50 47 46 44 42 40 38 37 38 40 42 45 49
91 88 87 89 89 88 89 89 88 84 81 80 80 77 75 75 75 75 74 74 72 68 63 59 56 54 53 51 49 49 47 44 42 41 40 40 40 39 38 39 40 41 43 46 49 52 54 56 56 55 52 49 46 44 43 41 38 36 36 37 39 42 45
90 88 85 87 89 89 89 88 86 83 81 80 80 78 77 78 78 77 75 73 72 68 62 60 57 55 53 51 51 51 49 45 44 43 42 41 40 39 40 40 40 41 41 43 47 51 54 56 56 55 53 50 47 46 44 42 39 36 34 35 38 41 43
90 88 84 84 85 86 89 89 86 84 82 82 82 81 81 80 79 78 75 73 72 69 64 61 59 57 55 53 53 54 51 47 46 45 44 44 43 41 40 40 39 40 40 41 44 48 52 54 55 55 54 52 50 48 46 43 41 38 36 34 36 39 41
91 87 84 84 83 83 88 90 87 85 83 81 82 82 82 81 79 77 75 74 73 69 63 61 59 58 57 56 55 55 53 50 48 47 46 46 46 44 42 40 39 39 39 39 41 44 48 51 53 55 56 55 52 50 48 46 43 42 40 37 35 36 39
90 87 85 85 82 81 86 90 88 85 83 81 82 83 83 83 80 77 75 74 73 68 63 59 59 58 58 57 56 55 54 52 49 47 47 47 46 45 43 41 40 39 39 38 39 41 44 47 50 53 55 56 54 52 49 48 46 44 43 40 37 36 37
91 88 86 85 81 79 84 88 88 87 85 83 83 85 86 84 81 77 75 74 73 68 63 60 59 59 58 58 58 57 56 54 50 47 47 47 47 46 44 42 41 40 39 39 38 39 41 43 46 50 53 55 55 54 52 50 48 46 44 42 38 36 35
92 89 87 86 84 82 82 84 87 88 87 84 85 87 86 83 79 76 74 74 73 68 62 60 60 59 58 58 59 59 59 56 51 48 48 48 48 47 45 44 42 41 40 40 39 39 40 41 43 46 50 53 55 55 54 51 49 47 45 43 40 37 36
93 90 87 85 85 85 83 83 86 87 86 86 87 86 84 80 77 75 74 73 72 69 63 61 60 59 57 57 58 60 61 59 53 50 49 49 49 48 46 45 44 42 41 40 39 39 39 40 41 44 47 50 53 54 55 53 51 49 47 45 44 42 41
94 91 88 86 85 86 86 85 85 86 86 87 86 84 79 73 71 73 74 73 73 71 66 62 62 61 59 57 57 59 61 61 57 54 52 51 50 49 47 45 45 43 41 40 40 39 38 39 40 42 44 46 49 52 54 54 53 52 50 49 48 47 46
96 93 90 88 88 88 88 86 86 87 88 89 87 82 77 70 64 67 73 74 73 74 71 66 64 65 65 62 59 60 63 63 60 58 56 54 52 51 48 46 44 43 42 40 40 40 39 38 39 40 41 44 46 48 51 53 54 54 53 52 51 50 49
98 97 95 92 90 90 90 89 88 87 88 89 88 84 80 73 62 60 67 73 73 74 74 71 68 67 67 67 65 63 64 64 63 61 59 57 56 53 51 48 46 45 43 42 41 41 40 38 38 38 39 41 42 45 47 50 52 53 54 53 52 51 49
101 100 98 95 93 92 93 91 88 87 87 88 88 85 84 81 71 61 61 66 71 73 73 73 72 70 69 69 69 67 65 65 65 64 62 60 58 56 53 51 48 47 46 44 43 42 40 38 38 37 37 38 39 41 43 45 47 50 51 52 52 51 50
103 102 99 97 95 94 94 90 87 86 87 88 87 85 85 86 81 71 62 58 62 71 74 73 72 72 72 72 73 71 68 66 66 65 63 61 59 57 55 52 50 49 47 46 44 42 40 39 38 38 38 37 37 38 39 40 43 45 47 49 50 50 51
105 103 101 99 97 95 94 91 88 85 85 87 88 85 84 86 83 77 70 61 56 61 70 73 74 75 74 74 75 74 71 68 67 67 66 63 60 58 56 54 53 51 50 48 45 43 42 41 40 39 38 38 38 38 38 39 40 41 43 46 48 50 51
106 104 102 101 99 97 94 92 90 87 84 87 89 87 86 88 86 79 75 70 62 58 61 67 73 78 79 78 77 78 76 72 70 70 69 66 63 61 59 57 56 55 53 51 48 46 45 44 43 41 40 39 39 39 39 39 39 39 40 42 45 48 50
107 106 104 103 101 99 97 95 95 92 88 88 90 88 87 89 90 87 82 76 69 64 62 63 66 73 80 82 81 80 80 78 76 75 73 69 66 64 62 60 59 57 56 54 51 49 48 47 46 44 43 43 42 42 41 41 40 39 39 39 41 44 46
107 107 106 105 103 100 99 98 97 96 94 91 90 89 86 86 90 93 91 85 78 72 69 67 66 67 74 81 83 81 81 81 80 77 74 71 68 65 64 62 61 59 58 56 54 52 51 50 49 48 47 47 46 46 44 43 42 40 39 39 40 41 42
106 107 106 105 103 101 100 100 99 99 99 96 93 90 88 87 88 91 94 95 93 87 80 76 73 71 72 76 80 81 81 81 81 79 75 72 71 68 66 65 63 62 61 59 57 56 54 53 52 52 51 51 50 49 48 46 45 43 42 41 41 41 41
105 107 106 105 104 103 101 101 101 100 101 101 98 95 93 89 87 88 92 96 99 98 93 87 83 80 78 78 80 81 82 82 81 80 77 76 74 72 70 68 66 64 63 62 60 59 57 56 55 55 55 55 54 53 52 50 48 47 45 45 45 45 44

ECMWFFLT2_250_spd_042.txt.gz
Wind_Speed
88 86 85 85 84 81 79 78 73 67 66 69 69 66 63 60 57 54 51 48 46 51 56 54 51 50 48 47 44 41 39 38 35 32 30 30 29 27 26 27 26 25 24 24 22 21 21 21 21 21 22 22 22 22 22 23 22 23 27 28 27 26 25
91 90 89 89 87 84 83 79 72 70 73 74 70 67 65 60 55 53 52 50 49 53 57 54 51 51 50 47 44 42 42 39 36 34 33 32 30 29 28 28 27 26 25 25 24 24 24 23 23 23 24 24 24 23 23 24 25 25 27 29 28 28 27
95 94 93 92 90 87 84 79 76 77 78 73 68 66 62 57 54 54 53 51 49 51 54 54 51 51 51 49 46 44 43 40 38 37 36 33 31 30 29 29 29 28 28 28 27 27 27 26 25 25 26 25 25 25 24 24 26 26 26 27 29 29 28
99 98 97 94 90 87 84 81 81 81 78 73 69 67 63 59 57 55 54 52 49 49 53 54 51 52 52 49 47 45 44 42 41 40 37 35 33 32 32 32 31 30 31 30 29 30 29 28 27 27 27 27 26 26 25 25 26 27 28 28 30 31 29
102 101 99 94 90 88 86 84 82 80 76 73 72 69 66 64 60 57 57 55 50 50 56 56 53 53 52 50 48 46 45 44 43 41 39 37 36 35 34 34 33 32 32 32 31 31 31 30 28 29 29 29 27 27 27 26 26 28 30 31 32 32 31
104 103 99 96 94 93 90 87 83 80 78 76 75 70 66 63 59 58 58 56 52 54 59 58 56 55 53 51 50 48 46 46 44 42 41 39 38 37 35 35 34 34 33 33 33 32 32 32 31 31 31 31 30 29 28 28 27 29 31 33 33 33 33
104 104 101 99 97 96 94 90 86 84 82 80 76 69 65 63 60 59 58 54 54 59 62 62 59 57 55 53 51 49 47 46 45 43 42 40 39 38 36 36 36 35 35 34 34 34 34 34 33 32 32 32 32 30 29 29 29 30 31 33 34 34 33
105 106 105 104 102 99 97 93 89 88 84 81 75 70 68 67 64 62 58 55 58 63 64 64 62 58 55 52 51 49 47 46 45 44 43 41 40 38 38 37 37 37 36 34 34 35 35 35 34 33 33 34 33 32 30 30 31 31 31 32 34 35 35
109 110 110 109 106 102 99 95 92 90 86 82 78 75 74 71 66 64 59 58 63 64 62 63 61 57 54 52 50 49 47 46 46 46 45 43 41 40 39 39 39 38 37 35 36 37 37 36 35 34 34 34 34 34 33 32 32 31 32 33 34 35 36
112 112 112 111 108 105 101 98 95 92 89 86 82 79 77 71 66 64 60 62 67 64 61 62 60 56 54 52 51 50 49 49 48 48 47 45 44 42 41 41 40 39 38 37 38 39 38 37 36 35 35 34 35 36 35 34 33 33 33 34 35 36 36
113 112 112 109 107 105 102 100 97 94 92 88 85 82 75 69 67 64 61 65 70 66 64 64 61 58 55 52 51 51 50 51 50 50 49 48 46 44 43 43 42 41 40 40 40 40 40 39 37 36 35 35 35 37 37 36 35 35 34 34 35 36 37
113 113 112 109 107 105 103 101 98 96 93 90 86 81 74 71 69 64 63 70 71 67 66 66 64 61 58 55 53 52 52 52 51 51 51 50 48 46 44 44 44 43 42 41 42 42 41 40 38 36 36 36 36 37 37 37 36 36 36 35 36 37 38
113 114 113 110 107 105 104 103 100 97 93 90 86 80 76 74 70 65 68 74 72 69 70 69 67 64 60 57 56 54 54 53 52 53 52 51 50 47 45 45 45 44 43 43 43 42 42 41 38 37 37 37 37 37 38 39 39 38 38 37 36 37 38
113 113 114 112 108 107 105 104 101 98 94 90 86 82 80 77 72 71 75 77 74 73 73 70 68 65 61 59 57 56 56 55 54 54 54 52 50 47 46 45 45 45 44 44 44 43 43 41 38 37 38 39 39 38 39 41 41 40 40 39 38 37 38
113 113 114 112 109 108 106 104 101 99 95 92 89 87 84 80 77 78 79 78 77 76 72 69 67 64 62 61 59 58 58 56 55 54 54 53 50 48 47 46 45 45 45 45 45 44 43 42 39 39 39 40 40 40 40 42 43 42 42 41 40 39 38
115 114 113 112 110 110 108 104 102 100 97 95 93 90 86 82 81 82 81 80 79 76 71 68 66 63 63 62 60 59 58 57 56 55 55 54 51 49 48 46 45 45 45 45 45 44 44 42 41 41 41 41 41 41 42 43 43 44 43 42 41 40 38
116 115 112 111 111 112 110 105 102 100 98 97 94 90 87 84 84 85 84 81 80 76 71 69 66 64 63 62 60 59 58 57 56 56 55 54 52 50 48 47 46 45 44 45 45 45 44 43 43 43 43 42 43 43 43 43 44 45 45 44 43 41 39
116 115 112 111 112 113 110 105 102 100 98 97 94 90 88 87 87 87 84 82 80 77 72 70 68 65 64 62 61 60 58 57 56 56 55 54 52 50 48 47 46 45 45 46 46 45 44 43 44 45 44 44 44 44 44 43 44 45 45 45 44 42 40
115 115 113 113 113 111 108 105 102 100 98 96 93 91 89 88 89 88 85 83 82 78 74 72 69 66 65 63 61 60 58 57 56 56 55 54 52 49 47 46 46 46 46 46 45 45 44 44 45 45 44 44 44 44 44 43 43 44 45 45 44 43 42
114 115 114 114 112 108 106 104 102 100 98 95 93 91 91 90 90 88 86 85 83 79 75 73 70 68 66 64 62 60 59 58 57 57 56 55 52 49 47 47 47 47 47 47 46 46 45 44 44 44 44 44 44 44 44 43 43 44 45 45 45 45 44
112 114 115 114 111 106 104 102 101 100 98 96 94 93 92 91 90 88 87 85 84 80 76 74 73 70 68 65 63 61 59 59 58 58 57 55 53 50 48 47 47 47 47 48 48 47 46 44 43 44 44 44 44 43 43 43 43 44 44 46 46 46 46
111 113 114 113 110 105 102 100 100 99 98 96 95 94 93 92 90 88 87 86 84 81 78 76 74 73 70 67 63 60 60 60 59 58 57 55 52 50 48 47 48 48 47 47 48 47 45 43 44 45 45 44 43 43 43 44 44 44 45 46 47 48 47
109 111 112 111 108 104 100 99 98 98 98 97 97 95 94 92 91 88 86 85 84 82 79 77 75 73 71 67 63 61 61 61 60 58 57 54 51 49 48 48 49 47 47 47 47 45 44 44 44 45 46 44 43 43 44 45 46 46 46 47 48 48 48
108 109 110 109 106 102 100 98 96 97 98 98 98 97 95 93 91 88 86 85 84 82 80 77 75 73 70 67 63 62 61 61 60 58 56 54 51 49 48 49 49 47 46 47 46 45 45 44 44 45 45 44 44 44 45 45 46 47 48 48 48 49 49
107 108 107 107 104 101 100 97 95 96 98 99 99 98 96 93 90 88 86 84 83 81 79 77 75 72 69 65 63 62 62 62 60 59 57 54 51 49 49 49 48 47 47 47 46 45 45 44 43 43 43 44 43 43 43 43 45 46 47 47 48 48 48
106 106 105 104 102 100 100 98 95 95 97 98 99 99 96 92 90 88 86 84 82 80 78 76 75 71 66 63 63 63 64 64 62 60 58 55 53 51 50 50 49 47 47 47 46 46 45 44 43 42 42 43 42 41 41 41 43 44 45 45 46 47 47
105 105 104 103 101 100 100 97 93 93 94 96 97 97 95 91 88 86 85 84 81 79 77 75 73 69 64 62 63 64 64 65 64 62 59 56 54 52 51 51 49 48 47 46 46 45 45 43 42 42 42 42 42 41 40 40 41 42 43 44 44 45 46
104 104 103 101 99 99 99 94 88 87 91 93 94 94 93 91 88 84 82 83 81 78 76 75 72 67 64 63 63 64 66 66 65 63 60 57 55 53 53 51 50 48 47 47 46 45 44 43 42 41 42 42 42 41 41 40 40 41 42 43 44 45 46
104 103 102 99 97 98 98 93 85 81 83 89 92 92 91 91 89 84 80 79 80 78 75 74 71 67 64 64 64 64 65 67 66 63 60 58 56 55 53 52 51 49 48 48 47 46 45 44 42 42 42 43 42 41 41 40 40 41 41 43 44 45 47
104 102 100 98 97 98 96 92 87 81 80 84 88 90 89 89 89 86 79 76 78 77 74 73 71 68 65 63 64 65 66 66 66 65 62 59 58 56 55 53 52 50 49 48 48 47 46 45 44 43 44 44 43 41 40 40 39 40 41 42 44 46 48
103 102 100 97 97 98 95 92 88 82 78 79 83 86 87 86 87 86 81 77 77 76 71 68 69 69 68 64 63 65 66 66 65 65 63 61 59 58 56 55 53 51 50 50 49 48 47 46 45 45 45 45 44 42 41 40 40 40 40 41 43 45 47
103 102 100 97 96 97 96 92 88 82 74 72 75 81 83 81 83 86 85 80 77 74 70 66 65 67 69 67 64 63 65 66 66 66 64 63 61 59 58 56 55 53 52 51 51 50 49 48 47 47 47 46 46 44 43 42 42 41 41 40 41 43 45
102 101 99 96 96 97 95 92 90 83 72 66 68 74 78 79 79 82 83 82 79 75 71 67 64 66 69 68 64 61 61 64 66 67 68 66 63 62 59 57 56 54 53 53 53 52 51 50 50 49 49 49 48 48 46 45 44 42 42 41 41 41 42
101 101 99 96 96 97 95 92 88 80 71 67 66 68 73 77 79 78 80 81 80 76 72 69 67 67 68 68 66 61 59 60 62 64 67 68 66 64 62 60 58 56 54 54 54 54 53 52 51 51 51 51 51 50 49 47 45 43 42 41 41 41 42
101 100 98 96 96 96 94 92 88 79 70 67 65 64 67 74 78 77 77 79 80 76 71 70 70 70 68 68 68 66 62 61 61 59 61 64 64 64 63 62 60 58 56 55 56 55 54 53 52 51 51 52 52 51 50 49 47 45 43 42 42 42 42
100 99 97 96 96 95 93 93 91 83 74 68 64 61 63 69 75 77 76 78 80 78 73 69 69 71 71 69 69 70 68 68 68 64 61 61 61 61 61 61 61 61 59 58 57 57 56 55 54 53 52 52 52 52 52 50 49 47 45 44 43 42 42
99 99 98 97 96 96 94 93 91 87 80 72 66 63 62 65 70 75 76 75 76 77 76 72 69 69 72 72 71 71 71 71 73 71 68 66 65 62 61 61 61 61 61 60 59 59 58 56 55 54 53 53 53 53 52 51 51 49 48 46 45 44 43

ECMWFFLT2_250_spd_045.txt.gz
Wind_Speed
97 95 93 92 91 89 87 86 83 78 75 76 74 71 68 62 57 53 50 50 49 53 58 56 54 53 49 46 44 42 42 40 36 33 32 31 29 28 28 28 27 24 22 21 19 18 17 16 16 15 15 16 15 15 14 14 15 18 19 19 19 21 21
101 99 96 96 94 90 89 86 82 78 80 80 76 73 70 64 59 54 53 54 53 56 59 56 54 54 52 49 47 45 44 41 38 35 34 33 32 31 31 30 28 25 24 23 21 20 19 18 17 17 17 17 17 17 17 16 16 18 21 20 19 21 23
103 103 101 99 97 94 91 87 84 84 85 82 77 74 70 65 60 56 55 56 53 55 58 56 55 55 54 53 50 48 46 43 40 38 37 36 35 34 33 31 29 27 26 26 24 23 21 20 19 19 18 17 18 19 19 18 18 18 20 20 19 20 23
106 106 105 103 99 97 94 89 89 89 86 83 79 75 71 68 63 57 57 56 52 54 59 57 56 57 56 54 51 48 47 44 42 41 39 38 37 36 35 33 31 29 29 28 27 25 23 21 20 19 19 18 19 20 20 20 20 18 20 22 22 22 23
109 108 107 105 102 100 97 94 93 91 86 84 82 78 74 72 66 61 60 58 54 56 60 58 57 57 56 54 51 49 47 45 44 43 41 40 38 37 36 34 33 32 30 30 29 27 24 22 21 21 21 19 19 20 21 22 21 21 21 23 25 25 25
110 109 107 107 106 104 101 98 94 90 87 85 83 78 74 71 67 63 62 60 57 59 62 59 58 58 57 55 53 50 48 46 45 44 42 40 39 38 37 36 35 33 32 32 30 28 25 24 23 23 21 20 19 19 21 23 23 23 23 24 26 27 27
109 110 109 110 110 108 105 101 95 91 89 87 84 78 73 71 67 63 62 60 58 60 63 62 60 59 59 58 55 52 50 48 47 45 43 42 40 39 38 37 37 35 34 33 31 28 27 25 24 23 22 21 20 20 21 23 24 25 25 26 26 27 28
110 112 113 113 113 111 109 104 98 94 90 87 83 78 75 74 70 66 63 60 59 63 64 64 62 60 60 59 56 54 52 49 48 46 44 43 41 40 40 39 38 37 35 33 31 29 28 27 25 24 23 22 22 21 22 24 25 26 26 27 26 27 28
113 116 117 117 116 114 111 107 101 96 92 88 84 80 79 77 72 68 64 60 62 67 66 65 65 61 60 59 57 55 53 51 49 47 45 44 43 42 41 40 39 38 35 33 32 31 31 29 27 26 25 24 23 23 23 24 25 26 27 28 28 27 28
116 117 118 117 116 114 112 109 103 99 95 90 87 84 82 79 74 70 65 62 66 70 68 67 68 64 61 60 58 56 54 52 51 49 46 44 43 42 41 40 39 37 35 34 34 34 32 31 29 27 26 25 24 24 24 24 25 26 28 29 29 29 29
118 117 117 116 115 114 112 109 105 101 97 93 89 87 83 78 75 72 67 65 70 73 70 70 70 67 62 60 58 56 54 51 49 47 46 44 43 43 41 40 39 38 36 36 36 35 34 32 30 29 27 26 25 25 25 25 25 27 29 30 31 31 31
119 117 117 117 116 115 113 110 108 104 99 95 91 87 83 79 76 73 70 70 74 76 73 71 69 67 62 58 57 56 53 51 49 47 46 45 44 44 43 41 40 39 38 38 37 36 34 32 31 30 28 27 26 26 26 26 26 28 30 31 32 33 33
119 118 116 116 117 116 113 111 110 106 102 97 92 88 85 81 78 75 74 75 78 78 74 70 67 65 63 59 57 56 54 52 50 49 48 46 45 45 43 42 41 40 39 38 38 36 34 33 32 31 29 28 28 28 28 28 29 30 31 32 33 34 34
118 117 115 116 117 117 115 112 111 108 104 99 95 90 87 83 80 78 77 79 82 79 74 69 66 65 64 61 58 56 54 52 50 50 49 48 46 45 43 42 41 41 39 38 38 36 35 34 34 32 31 30 30 30 30 30 31 32 33 34 34 35 36
116 116 115 116 117 117 116 114 111 109 106 102 98 93 89 86 83 81 81 83 84 80 74 70 67 66 65 61 58 56 54 52 51 51 50 48 47 45 44 43 42 41 40 39 38 37 36 35 35 34 32 32 32 33 32 33 33 34 35 35 36 37 37
114 116 115 115 117 118 118 115 112 109 106 104 100 96 91 87 84 83 84 86 85 80 75 72 69 67 66 63 59 56 54 53 53 52 51 50 49 48 45 43 42 41 41 40 39 38 38 37 36 35 34 33 34 34 35 35 35 35 36 37 37 38 38
112 115 115 114 116 118 118 115 112 108 106 104 101 97 93 89 87 86 87 88 86 80 76 75 72 70 68 64 60 58 56 55 54 53 53 52 50 49 46 44 43 42 42 42 41 40 39 38 37 36 35 35 36 37 37 37 37 37 37 38 38 38 38
110 113 113 113 115 117 116 114 111 108 106 104 102 99 95 92 91 89 89 89 85 79 77 77 75 72 70 67 63 60 59 58 56 55 53 52 51 49 47 45 44 43 43 43 42 41 40 39 38 38 37 37 37 38 37 37 37 38 39 39 39 39 38
108 112 112 112 113 112 112 112 112 109 106 104 102 100 97 95 93 91 90 90 86 81 80 80 77 75 73 69 65 63 61 59 58 56 54 53 52 50 48 46 45 44 44 43 42 41 40 40 39 38 38 38 38 38 38 38 38 39 40 40 40 40 39
107 110 111 109 108 108 110 112 112 110 107 104 102 100 99 97 95 93 92 91 87 84 83 82 79 77 74 72 68 66 63 61 59 57 56 54 52 50 49 48 47 46 45 44 43 42 41 40 40 39 40 40 39 40 40 40 40 40 40 40 40 40 40
105 107 107 105 104 107 110 112 112 110 107 104 102 100 100 99 97 95 94 92 89 86 85 83 81 79 76 73 71 69 66 63 60 58 57 55 53 51 50 49 48 47 46 45 43 42 42 41 41 41 41 41 41 41 41 40 40 40 40 41 41 41 42
102 104 105 104 104 107 109 110 110 108 106 104 101 100 101 101 98 96 95 93 91 89 87 85 84 81 78 75 73 71 69 66 63 60 58 56 54 52 51 50 49 48 47 45 44 43 43 43 42 42 42 42 42 42 41 39 40 40 41 42 42 42 44
99 102 103 103 103 104 105 106 108 107 106 104 102 101 102 102 100 98 96 95 92 91 89 87 86 83 79 76 74 72 70 67 64 62 59 57 55 54 52 51 50 49 48 46 46 45 44 43 42 42 43 43 43 42 40 40 40 41 42 43 43 44 45
97 100 101 101 101 102 103 104 106 107 106 104 104 103 103 102 101 99 97 95 94 93 91 89 86 84 81 78 75 73 71 68 66 63 61 59 57 56 54 53 51 50 49 47 46 46 45 44 44 44 44 44 43 42 41 41 42 43 44 45 45 45 45
98 100 100 100 100 101 102 102 104 107 106 105 105 104 102 101 101 99 98 96 95 94 93 90 88 85 83 79 76 74 71 69 67 65 63 61 59 58 56 55 53 51 50 48 47 46 45 44 44 44 44 43 43 42 42 43 44 45 45 46 46 45 46
98 99 99 99 99 100 101 101 103 105 106 105 104 103 102 101 100 100 99 98 96 96 94 92 89 87 84 80 77 75 73 70 68 66 64 63 61 60 58 56 54 53 50 49 47 45 44 44 45 44 44 43 43 43 44 45 46 45 45 46 46 46 46
98 99 99 99 98 99 100 100 101 104 105 104 103 103 102 102 101 100 100 99 98 97 96 93 91 88 85 81 78 76 74 71 68 67 65 64 62 61 59 57 55 53 51 49 47 45 45 45 45 44 44 44 44 45 46 46 45 44 44 45 45 45 45
96 98 99 98 98 98 99 99 100 103 104 104 103 103 103 102 101 101 101 100 99 98 97 94 92 89 85 82 80 78 75 72 70 68 66 65 63 62 60 58 56 54 52 49 47 46 46 46 45 44 44 44 45 46 46 45 43 43 44 44 44 43 43
94 96 98 97 96 97 97 98 99 101 103 104 103 102 101 101 101 101 101 101 100 99 98 96 93 89 86 83 81 79 76 73 71 70 68 66 65 63 61 59 57 55 53 50 48 47 47 47 46 45 44 45 45 46 45 44 42 42 43 43 43 42 41
92 95 97 96 96 96 96 97 98 100 103 104 102 100 100 101 102 102 101 100 100 99 98 96 93 90 87 84 83 80 77 74 73 72 71 69 66 65 62 60 59 57 55 52 50 49 49 48 47 46 45 44 44 44 43 42 42 42 42 43 42 41 40
91 94 96 96 95 95 96 97 98 100 103 103 102 100 100 101 101 101 100 99 98 98 98 96 93 90 87 85 84 81 77 75 75 74 73 71 68 66 64 62 60 58 56 54 52 51 51 50 48 47 45 44 43 43 42 42 42 42 42 42 42 40 39
90 93 95 95 94 94 95 96 98 100 103 102 101 99 99 99 100 100 100 98 95 94 96 95 92 89 87 85 83 81 78 76 76 75 74 72 70 67 65 63 60 59 57 54 52 52 51 50 49 47 46 44 43 43 43 43 41 40 41 41 41 40 39
89 93 95 94 93 94 95 96 98 100 102 101 100 99 98 97 98 99 99 98 95 91 91 93 91 88 87 85 82 80 78 76 76 75 74 72 71 68 66 63 60 58 58 55 53 53 52 50 49 47 46 44 43 44 43 42 40 40 40 41 42 41 39
89 93 94 93 92 93 95 96 98 100 100 100 98 97 96 96 97 97 97 98 95 88 85 88 89 87 85 84 82 79 77 75 75 75 74 72 71 69 66 63 61 59 57 56 54 53 52 50 49 48 46 44 44 44 43 41 40 41 41 42 42 42 40
89 93 93 91 91 93 94 95 97 98 98 98 97 96 96 95 95 96 95 95 95 89 81 79 83 85 84 82 81 78 76 75 74 74 73 71 70 69 66 63 61 59 57 56 55 54 53 51 50 49 47 46 45 45 43 42 42 43 43 43 43 43 42
89 92 92 90 91 93 94 95 96 97 97 97 96 95 96 95 94 94 92 89 90 90 83 75 74 79 81 80 79 77 76 75 74 73 72 70 69 68 66 63 61 59 58 56 56 55 54 52 51 50 49 47 46 45 44 43 44 45 45 45 45 44 44
88 91 90 89 91 92 93 95 96 96 95 96 96 95 96 96 93 92 92 87 84 86 87 79 72 72 74 76 78 77 75 74 74 72 70 69 67 66 65 64 63 61 59 58 57 56 55 53 53 52 51 49 47 46 45 45 46 46 47 47 47 47 46

ECMWFFLT2_250_spd_048.txt.gz
Wind_Speed
94 96 99 99 97 93 89 87 85 83 82 81 79 77 75 72 65 60 60 58 54 53 57 57 55 56 54 49 48 45 42 40 37 34 33 32 31 30 29 28 26 24 23 23 21 20 19 18 16 15 15 14 14 14 14 15 15 15 15 16 17 19 20
96 98 100 101 99 96 93 90 86 85 85 84 82 80 78 74 67 62 62 61 57 55 60 63 59 57 56 52 50 48 45 43 39 37 36 35 34 33 33 31 28 26 26 25 22 21 20 18 17 16 16 16 16 16 16 16 17 17 17 16 15 18 21
97 98 100 103 102 100 98 94 89 88 87 85 84 81 78 74 69 65 62 62 59 57 63 67 60 58 59 56 52 50 48 45 42 40 40 39 38 36 35 33 30 28 28 27 25 23 21 20 19 18 18 17 17 17 17 18 18 18 17 16 15 16 19
97 98 101 104 104 103 101 97 92 90 88 87 85 82 80 77 72 67 64 63 60 60 65 68 62 61 62 59 56 53 50 47 45 44 43 42 41 39 38 36 33 31 30 29 27 24 22 21 20 19 19 18 17 17 18 19 19 18 18 18 18 18 19
99 99 101 102 103 103 104 100 95 92 90 88 87 84 83 80 75 70 67 64 63 63 67 69 66 65 65 62 59 55 52 50 48 47 46 45 44 42 40 38 35 34 32 31 29 26 23 22 21 21 21 19 18 18 18 19 19 20 20 20 20 21 21
101 101 102 102 104 106 106 104 99 96 93 90 88 85 83 80 77 73 69 67 67 66 68 70 69 68 67 64 61 57 54 53 52 50 49 47 45 44 42 39 37 36 34 32 30 27 25 24 24 24 23 20 19 18 18 19 20 21 22 22 22 22 22
105 105 104 103 104 106 106 104 101 99 96 92 89 86 84 82 79 76 72 70 69 68 69 72 71 69 68 65 62 59 56 56 55 53 51 48 47 45 43 41 39 38 36 34 31 29 27 27 26 25 24 22 20 19 18 18 20 21 22 23 23 23 23
109 109 107 104 103 104 104 103 101 100 98 94 91 88 87 86 82 79 75 71 70 70 72 73 72 71 70 67 64 61 58 57 57 55 53 50 47 46 44 42 41 39 37 34 32 30 30 30 28 27 26 24 22 20 19 19 20 20 21 23 24 24 24
112 112 110 107 105 105 104 103 104 103 102 97 92 89 87 85 83 81 77 73 72 74 75 76 74 73 72 70 67 64 60 59 58 55 53 51 49 47 46 43 41 40 38 35 34 34 34 32 31 30 28 26 24 23 22 20 19 19 21 23 24 25 26
113 113 112 109 108 107 106 107 108 107 104 100 94 91 89 86 83 82 79 76 76 77 79 79 77 74 75 73 69 66 62 60 58 56 53 51 50 49 47 44 42 41 39 38 37 37 36 34 33 31 29 27 26 25 23 21 20 19 20 22 23 25 26
112 113 113 111 110 111 110 110 109 106 103 100 97 95 91 89 87 85 81 79 78 79 82 82 80 79 77 73 69 68 64 60 59 57 54 52 51 49 47 45 43 42 41 40 39 39 38 36 34 32 30 29 27 26 25 23 21 20 20 21 23 24 26
112 114 114 113 113 114 112 108 104 103 103 101 99 97 93 91 90 87 85 82 80 82 85 84 83 82 77 72 70 69 66 62 60 58 55 53 51 48 47 45 44 44 43 42 42 41 39 36 35 33 31 30 28 27 26 24 22 22 22 22 23 24 26
112 114 115 114 114 114 112 108 103 102 102 101 99 98 96 93 91 88 87 85 83 86 89 87 84 82 77 72 70 69 67 63 60 58 55 53 51 49 47 46 46 45 44 43 42 41 39 37 36 34 33 31 30 28 27 26 25 25 24 24 24 25 26
111 114 114 114 114 113 112 109 105 103 103 102 101 100 98 95 91 90 89 86 85 89 90 87 85 83 78 73 70 69 68 65 62 59 56 54 52 50 48 47 46 45 44 44 43 42 41 39 37 36 35 33 31 30 29 28 27 27 26 26 25 26 27
111 113 113 113 113 112 112 111 109 105 103 103 102 101 100 97 93 92 91 88 87 89 89 87 87 85 80 76 72 70 70 67 64 61 58 56 53 51 49 48 48 47 47 47 46 44 42 41 40 38 37 35 33 32 30 29 28 28 28 27 26 26 28
111 113 114 113 112 112 113 112 111 108 103 103 103 102 101 99 95 93 93 90 88 89 89 88 88 86 82 77 73 71 70 68 65 62 59 57 54 52 51 51 51 51 50 49 47 45 43 42 41 39 37 36 34 33 32 32 31 30 29 28 27 27 28
110 114 115 113 113 113 113 112 112 109 105 102 102 102 102 102 99 97 96 92 89 90 90 89 88 86 82 78 74 71 70 69 67 63 60 58 56 55 54 53 53 52 50 48 47 45 44 43 42 41 39 38 37 36 35 34 32 31 30 28 28 28 28
108 114 116 114 113 112 111 111 111 110 107 103 101 102 104 104 103 100 97 92 89 91 92 90 88 86 82 79 75 72 70 70 69 66 63 60 58 57 56 56 54 52 50 49 49 47 46 44 44 43 41 40 38 37 35 33 32 31 30 29 29 29 29
106 113 116 115 113 110 109 111 111 111 109 105 101 103 106 106 104 101 96 92 91 94 94 91 88 86 84 81 77 75 72 70 69 68 65 63 61 60 59 57 54 53 52 52 51 49 48 46 45 44 42 41 38 36 35 34 33 32 31 30 30 30 30
103 110 113 114 111 109 109 110 111 112 110 106 103 103 106 106 105 102 98 94 94 95 94 91 89 88 86 82 79 77 75 72 70 69 67 66 65 63 60 57 55 56 56 54 52 50 49 48 46 45 44 42 39 37 36 35 34 34 33 32 31 31 31
99 105 109 110 110 110 110 110 112 113 111 108 106 104 104 105 105 103 99 96 95 95 94 92 90 89 88 85 82 80 77 73 71 69 68 68 66 63 60 59 59 59 57 53 52 51 51 49 48 47 45 41 39 38 37 35 35 35 34 34 33 33 33
95 101 104 107 109 110 111 113 114 112 110 109 108 105 104 105 105 104 101 98 97 96 95 94 92 91 89 86 82 80 78 75 72 70 68 67 66 64 63 62 62 59 55 54 54 54 52 50 48 47 43 40 40 40 38 37 37 36 35 35 35 35 35
91 97 100 103 105 108 110 114 114 111 109 109 108 106 105 105 106 105 103 100 98 97 97 96 94 92 89 85 82 81 79 76 73 71 69 67 66 66 65 63 61 57 56 56 55 54 52 49 48 46 42 40 41 41 39 38 38 37 37 37 37 37 37
88 93 96 99 102 105 109 112 113 111 109 109 110 108 105 104 105 106 104 101 99 99 99 97 95 92 88 85 83 82 80 77 74 72 70 69 68 67 65 62 59 57 56 56 55 53 51 49 48 46 43 42 42 42 40 40 39 38 39 40 39 38 38
85 90 93 96 99 102 106 109 111 110 110 111 112 108 105 105 106 106 105 103 101 100 99 97 95 92 88 86 85 83 81 78 76 74 73 71 69 67 65 63 60 58 57 55 54 53 51 50 49 47 44 43 44 43 42 41 41 41 42 41 40 39 39
83 87 90 94 97 100 104 106 108 110 111 113 111 107 107 108 108 107 107 105 103 102 100 98 96 92 90 88 86 83 82 80 78 76 74 72 70 68 66 64 62 60 58 56 55 53 51 50 49 46 44 45 45 44 44 44 43 43 42 41 41 41 41
81 85 88 93 96 99 102 104 106 109 110 111 110 108 108 110 109 109 109 107 105 103 101 99 97 93 91 89 86 84 83 81 80 78 76 73 71 69 67 66 65 63 61 58 56 55 53 51 49 47 46 46 46 45 46 45 44 42 42 42 43 42 42
79 82 86 90 93 97 101 103 104 106 107 108 109 110 110 110 109 110 110 108 106 105 103 101 98 94 91 90 88 85 84 82 81 79 77 75 72 70 68 67 66 65 63 61 59 57 54 52 50 49 48 48 47 48 47 45 43 43 44 44 44 43 43
77 80 83 87 91 95 98 100 101 102 103 104 107 109 111 111 110 110 111 110 108 106 104 102 99 96 92 91 89 87 85 84 82 80 78 76 73 71 70 69 68 67 65 64 62 59 56 54 52 51 50 50 50 50 48 45 44 45 45 44 44 44 43
75 79 82 85 89 93 95 97 98 99 99 101 104 108 110 111 111 111 111 110 109 107 105 103 101 97 94 92 91 88 86 85 84 81 78 76 75 73 71 70 69 68 67 65 63 61 59 57 55 53 53 52 52 51 48 47 46 46 45 45 44 43 41
74 77 80 83 87 92 94 95 96 96 96 98 102 106 109 110 111 111 111 111 110 108 106 104 102 98 95 93 92 90 88 86 84 82 79 77 75 74 72 71 70 68 67 66 64 62 60 58 56 55 55 54 54 52 50 49 49 47 46 46 44 42 40
72 76 78 81 86 90 92 93 94 94 95 97 101 105 108 110 110 111 111 111 110 109 106 105 103 100 96 95 93 91 89 87 85 83 80 78 76 75 73 71 70 69 67 66 65 63 61 60 58 58 57 56 55 53 51 51 50 48 47 46 44 42 41
71 74 76 79 84 88 90 92 93 93 94 96 100 105 108 109 110 111 111 111 110 109 107 106 104 101 98 96 95 93 91 89 87 84 82 79 77 76 74 72 71 69 68 66 65 63 62 61 60 59 59 58 56 54 53 52 50 49 48 46 45 43 42
70 73 75 78 82 86 89 91 92 92 93 95 99 104 108 109 110 110 110 110 110 109 108 107 104 101 98 97 96 94 92 90 88 86 83 81 79 77 75 74 72 70 68 67 65 64 62 62 61 60 59 58 57 55 54 52 50 49 48 46 45 43 43
68 71 73 76 81 86 89 91 92 92 93 95 99 102 106 109 110 110 110 110 110 108 107 106 104 101 99 98 96 95 93 91 90 87 84 82 80 79 77 75 74 72 70 68 66 65 63 63 62 61 60 59 58 56 54 52 50 50 48 47 45 44 44
66 69 71 75 79 84 89 91 92 92 94 96 98 101 105 108 109 110 110 110 109 107 105 103 103 101 99 96 95 94 93 92 90 88 85 83 81 80 79 77 76 74 71 69 68 66 65 63 63 63 62 60 59 57 54 53 52 51 50 48 47 46 46
64 66 69 73 78 83 88 90 92 93 94 96 98 101 104 107 109 110 109 109 108 106 104 102 102 102 99 96 93 93 93 92 91 88 86 84 83 82 80 79 78 75 73 72 70 68 66 65 64 64 64 62 60 58 56 55 54 53 52 50 49 48 48